Time,TemperatureF,DewpointF,PressureIn,WindDirection,WindDirectionDegrees,WindSpeedMPH,WindSpeedGustMPH,Humidity,HourlyPrecipIn,Conditions,Clouds,dailyrainin,SoftwareType,DateUTC
2013-08-27 00:01:00,75.2,36.0,29.91,WNW,292,10.5,10.5,24,0.00,,---,0.00,VWS V14.00,2013-08-27 04:01:00,
2013-08-27 00:02:00,75.2,36.0,29.91,WSW,248,4.3,10.5,24,0.00,,---,0.00,VWS V14.00,2013-08-27 04:02:00,
2013-08-27 00:03:00,75.2,36.0,29.91,West,270,3.4,5.4,24,0.00,,---,0.00,VWS V14.00,2013-08-27 04:03:00,
2013-08-27 00:06:00,75.2,36.0,29.91,SW,225,3.4,5.6,24,0.00,,---,0.00,VWS V14.00,2013-08-27 04:06:00,
2013-08-27 00:07:00,75.2,36.0,29.91,WNW,292,6.5,6.5,24,0.00,,---,0.00,VWS V14.00,2013-08-27 04:07:00,
2013-08-27 00:11:00,75.2,36.0,29.91,WSW,248,2.9,6.7,24,0.00,,---,0.00,VWS V14.00,2013-08-27 04:11:00,
2013-08-27 00:12:00,75.0,35.8,29.91,WSW,248,5.8,5.8,24,0.00,,---,0.00,VWS V14.00,2013-08-27 04:12:00,
2013-08-27 00:15:00,75.0,35.8,29.91,West,270,3.4,4.3,24,0.00,,---,0.00,VWS V14.00,2013-08-27 04:15:00,
2013-08-27 00:16:00,75.0,35.8,29.91,WSW,248,6.0,6.0,24,0.00,,---,0.00,VWS V14.00,2013-08-27 04:16:00,
2013-08-27 00:21:00,75.2,36.0,29.91,West,270,3.4,4.3,24,0.00,,---,0.00,VWS V14.00,2013-08-27 04:21:00,
2013-08-27 00:23:00,75.0,36.8,29.91,SW,225,5.4,5.6,25,0.00,,---,0.00,VWS V14.00,2013-08-27 04:23:00,
2013-08-27 00:26:00,75.0,36.8,29.91,SW,225,3.1,10.1,25,0.00,,---,0.00,VWS V14.00,2013-08-27 04:26:00,
2013-08-27 00:27:00,74.8,36.7,29.91,SSW,202,10.7,10.7,25,0.00,,---,0.00,VWS V14.00,2013-08-27 04:27:00,
2013-08-27 00:30:00,74.7,36.5,29.91,SW,225,7.4,7.4,25,0.00,,---,0.00,VWS V14.00,2013-08-27 04:30:00,
2013-08-27 00:31:00,74.5,36.4,29.91,West,270,3.6,7.4,25,0.00,,---,0.00,VWS V14.00,2013-08-27 04:31:00,
2013-08-27 00:32:00,74.5,36.4,29.91,West,270,5.8,5.8,25,0.00,,---,0.00,VWS V14.00,2013-08-27 04:32:00,
2013-08-27 00:34:00,74.3,36.2,29.91,WNW,292,4.3,4.3,25,0.00,,---,0.00,VWS V14.00,2013-08-27 04:34:00,
2013-08-27 00:37:00,74.1,37.1,29.91,WSW,248,2.7,4.9,26,0.00,,---,0.00,VWS V14.00,2013-08-27 04:37:00,
2013-08-27 00:38:00,74.1,37.1,29.91,West,270,5.8,7.6,26,0.00,,---,0.00,VWS V14.00,2013-08-27 04:38:00,
2013-08-27 00:39:00,73.9,36.9,29.91,West,270,2.2,5.8,26,0.00,,---,0.00,VWS V14.00,2013-08-27 04:39:00,
2013-08-27 00:40:00,73.9,36.9,29.91,WSW,248,3.1,3.1,26,0.00,,---,0.00,VWS V14.00,2013-08-27 04:40:00,
2013-08-27 00:42:00,73.8,37.7,29.91,West,270,2.7,3.6,27,0.00,,---,0.00,VWS V14.00,2013-08-27 04:42:00,
2013-08-27 00:44:00,73.8,37.7,29.91,West,270,4.0,4.0,27,0.00,,---,0.00,VWS V14.00,2013-08-27 04:44:00,
2013-08-27 00:45:00,73.8,37.7,29.91,WSW,248,2.5,4.3,27,0.00,,---,0.00,VWS V14.00,2013-08-27 04:45:00,
2013-08-27 00:47:00,73.8,37.7,29.91,West,270,3.4,3.4,27,0.00,,---,0.00,VWS V14.00,2013-08-27 04:47:00,
2013-08-27 00:49:00,73.8,38.7,29.91,West,270,4.0,4.7,28,0.00,,---,0.00,VWS V14.00,2013-08-27 04:49:00,
2013-08-27 00:50:00,73.8,38.7,29.91,West,270,7.6,7.6,28,0.00,,---,0.00,VWS V14.00,2013-08-27 04:50:00,
2013-08-27 00:54:00,73.8,38.7,29.91,West,270,2.5,4.0,28,0.00,,---,0.00,VWS V14.00,2013-08-27 04:54:00,
2013-08-27 00:55:00,73.6,38.5,29.91,WSW,248,2.9,3.8,28,0.00,,---,0.00,VWS V14.00,2013-08-27 04:55:00,
2013-08-27 00:56:00,73.6,38.5,29.91,West,270,2.5,4.0,28,0.00,,---,0.00,VWS V14.00,2013-08-27 04:56:00,
2013-08-27 00:59:00,73.4,38.3,29.91,West,270,3.4,3.8,28,0.00,,---,0.00,VWS V14.00,2013-08-27 04:59:00,
2013-08-27 01:01:00,73.2,39.1,29.91,WNW,292,2.7,3.8,29,0.00,,---,0.00,VWS V14.00,2013-08-27 05:01:00,
2013-08-27 01:03:00,73.0,38.9,29.91,NW,315,3.6,4.9,29,0.00,,---,0.00,VWS V14.00,2013-08-27 05:03:00,
2013-08-27 01:05:00,73.0,38.9,29.91,WSW,248,3.6,3.6,29,0.00,,---,0.00,VWS V14.00,2013-08-27 05:05:00,
2013-08-27 01:06:00,72.9,38.8,29.91,WNW,292,2.7,3.6,29,0.00,,---,0.00,VWS V14.00,2013-08-27 05:06:00,
2013-08-27 01:09:00,72.9,40.5,29.91,West,270,4.3,6.3,31,0.00,,---,0.00,VWS V14.00,2013-08-27 05:09:00,
2013-08-27 01:10:00,72.9,40.5,29.91,West,270,3.4,4.3,31,0.00,,---,0.00,VWS V14.00,2013-08-27 05:10:00,
2013-08-27 01:13:00,72.7,40.3,29.91,West,270,1.3,2.7,31,0.00,,---,0.00,VWS V14.00,2013-08-27 05:13:00,
2013-08-27 01:17:00,72.5,40.2,29.91,WNW,292,2.5,2.5,31,0.00,,---,0.00,VWS V14.00,2013-08-27 05:17:00,
2013-08-27 01:18:00,72.3,40.0,29.91,West,270,2.9,2.9,31,0.00,,---,0.00,VWS V14.00,2013-08-27 05:18:00,
2013-08-27 01:20:00,72.3,40.0,29.91,WNW,292,1.6,2.7,31,0.00,,---,0.00,VWS V14.00,2013-08-27 05:20:00,
2013-08-27 01:23:00,72.3,40.0,29.91,WNW,292,1.1,3.4,31,0.00,,---,0.00,VWS V14.00,2013-08-27 05:23:00,
2013-08-27 01:25:00,72.3,40.0,29.91,WNW,292,0.0,2.7,31,0.00,,---,0.00,VWS V14.00,2013-08-27 05:25:00,
2013-08-27 01:26:00,72.3,40.0,29.91,NNW,338,2.7,2.9,31,0.00,,---,0.00,VWS V14.00,2013-08-27 05:26:00,
2013-08-27 01:28:00,72.5,40.2,29.91,NNW,338,2.5,2.5,31,0.00,,---,0.00,VWS V14.00,2013-08-27 05:28:00,
2013-08-27 01:30:00,72.5,40.2,29.91,North,0,2.5,3.1,31,0.00,,---,0.00,VWS V14.00,2013-08-27 05:30:00,
2013-08-27 01:32:00,72.5,40.2,29.91,WNW,292,0.0,1.1,31,0.00,,---,0.00,VWS V14.00,2013-08-27 05:32:00,
2013-08-27 01:33:00,72.5,40.2,29.91,West,270,2.0,2.5,31,0.00,,---,0.00,VWS V14.00,2013-08-27 05:33:00,
2013-08-27 01:35:00,72.5,40.2,29.91,NW,315,0.0,2.2,31,0.00,,---,0.00,VWS V14.00,2013-08-27 05:35:00,
2013-08-27 01:38:00,72.3,40.0,29.91,West,270,0.0,0.0,31,0.00,,---,0.00,VWS V14.00,2013-08-27 05:38:00,
2013-08-27 01:40:00,72.3,40.0,29.91,West,270,3.8,3.8,31,0.00,,---,0.00,VWS V14.00,2013-08-27 05:40:00,
2013-08-27 01:41:00,72.5,40.2,29.91,WNW,292,2.2,3.8,31,0.00,,---,0.00,VWS V14.00,2013-08-27 05:41:00,
2013-08-27 01:45:00,72.5,40.2,29.91,WSW,248,2.5,3.1,31,0.00,,---,0.00,VWS V14.00,2013-08-27 05:45:00,
2013-08-27 01:47:00,72.3,40.0,29.91,West,270,2.2,2.2,31,0.00,,---,0.00,VWS V14.00,2013-08-27 05:47:00,
2013-08-27 01:48:00,72.3,40.0,29.91,WSW,248,3.1,3.8,31,0.00,,---,0.00,VWS V14.00,2013-08-27 05:48:00,
2013-08-27 01:49:00,72.3,40.0,29.91,WSW,248,2.2,3.1,31,0.00,,---,0.00,VWS V14.00,2013-08-27 05:49:00,
2013-08-27 01:50:00,72.3,40.0,29.91,West,270,2.5,3.4,31,0.00,,---,0.00,VWS V14.00,2013-08-27 05:50:00,
2013-08-27 01:54:00,72.3,40.0,29.91,West,270,2.7,2.7,31,0.00,,---,0.00,VWS V14.00,2013-08-27 05:54:00,
2013-08-27 01:58:00,72.3,40.0,29.91,West,270,1.6,2.0,31,0.00,,---,0.00,VWS V14.00,2013-08-27 05:58:00,
2013-08-27 01:59:00,72.3,40.0,29.91,West,270,3.1,3.1,31,0.00,,---,0.00,VWS V14.00,2013-08-27 05:59:00,
2013-08-27 02:00:00,72.3,40.0,29.91,West,270,2.2,3.1,31,0.00,,---,0.00,VWS V14.00,2013-08-27 06:00:00,
2013-08-27 02:03:00,72.1,39.9,29.88,West,270,2.9,3.8,31,0.00,,---,0.00,VWS V14.00,2013-08-27 06:03:00,
2013-08-27 02:05:00,72.1,39.9,29.88,WSW,248,3.4,3.4,31,0.00,,---,0.00,VWS V14.00,2013-08-27 06:05:00,
2013-08-27 02:07:00,72.1,39.9,29.88,West,270,0.0,3.8,31,0.00,,---,0.00,VWS V14.00,2013-08-27 06:07:00,
2013-08-27 02:08:00,72.1,39.9,29.88,West,270,0.0,0.0,31,0.00,,---,0.00,VWS V14.00,2013-08-27 06:08:00,
2013-08-27 02:09:00,72.1,40.7,29.88,West,270,3.1,5.6,32,0.00,,---,0.00,VWS V14.00,2013-08-27 06:09:00,
2013-08-27 02:10:00,72.1,39.9,29.88,WNW,292,2.9,4.7,31,0.00,,---,0.00,VWS V14.00,2013-08-27 06:10:00,
2013-08-27 02:15:00,72.1,40.7,29.88,WNW,292,4.0,4.0,32,0.00,,---,0.00,VWS V14.00,2013-08-27 06:15:00,
2013-08-27 02:16:00,72.1,40.7,29.88,WSW,248,3.8,6.5,32,0.00,,---,0.00,VWS V14.00,2013-08-27 06:16:00,
2013-08-27 02:17:00,72.3,40.8,29.88,WSW,248,4.0,4.0,32,0.00,,---,0.00,VWS V14.00,2013-08-27 06:17:00,
2013-08-27 02:20:00,72.1,40.7,29.88,WSW,248,2.9,3.6,32,0.00,,---,0.00,VWS V14.00,2013-08-27 06:20:00,
2013-08-27 02:21:00,72.1,40.7,29.88,WNW,292,4.9,4.9,32,0.00,,---,0.00,VWS V14.00,2013-08-27 06:21:00,
2013-08-27 02:22:00,72.1,40.7,29.88,WNW,292,2.9,4.9,32,0.00,,---,0.00,VWS V14.00,2013-08-27 06:22:00,
2013-08-27 02:24:00,72.3,40.0,29.88,WSW,248,3.4,3.4,31,0.00,,---,0.00,VWS V14.00,2013-08-27 06:24:00,
2013-08-27 02:25:00,72.3,40.0,29.88,WSW,248,4.7,6.5,31,0.00,,---,0.00,VWS V14.00,2013-08-27 06:25:00,
2013-08-27 02:26:00,72.3,40.0,29.88,West,270,2.9,4.7,31,0.00,,---,0.00,VWS V14.00,2013-08-27 06:26:00,
2013-08-27 02:29:00,72.3,40.0,29.88,West,270,4.9,4.9,31,0.00,,---,0.00,VWS V14.00,2013-08-27 06:29:00,
2013-08-27 02:31:00,72.3,40.0,29.88,WSW,248,3.4,4.3,31,0.00,,---,0.00,VWS V14.00,2013-08-27 06:31:00,
2013-08-27 02:32:00,72.3,40.0,29.88,West,270,3.6,4.0,31,0.00,,---,0.00,VWS V14.00,2013-08-27 06:32:00,
2013-08-27 02:33:00,72.3,40.0,29.88,West,270,3.6,3.6,31,0.00,,---,0.00,VWS V14.00,2013-08-27 06:33:00,
2013-08-27 02:37:00,72.5,39.3,29.88,West,270,3.4,3.8,30,0.00,,---,0.00,VWS V14.00,2013-08-27 06:37:00,
2013-08-27 02:38:00,72.5,38.5,29.88,West,270,3.1,4.0,29,0.00,,---,0.00,VWS V14.00,2013-08-27 06:38:00,
2013-08-27 02:40:00,72.5,39.3,29.88,WSW,248,3.6,4.7,30,0.00,,---,0.00,VWS V14.00,2013-08-27 06:40:00,
2013-08-27 02:42:00,72.5,38.5,29.88,West,270,2.7,3.6,29,0.00,,---,0.00,VWS V14.00,2013-08-27 06:42:00,
2013-08-27 02:43:00,72.5,37.6,29.88,WNW,292,3.4,3.6,28,0.00,,---,0.00,VWS V14.00,2013-08-27 06:43:00,
2013-08-27 02:44:00,72.5,36.7,29.88,WSW,248,3.1,3.8,27,0.00,,---,0.00,VWS V14.00,2013-08-27 06:44:00,
2013-08-27 02:48:00,72.7,37.7,29.85,WNW,292,2.5,3.4,28,0.00,,---,0.00,VWS V14.00,2013-08-27 06:48:00,
2013-08-27 02:49:00,72.7,34.9,29.85,WSW,248,1.6,3.8,25,0.00,,---,0.00,VWS V14.00,2013-08-27 06:49:00,
2013-08-27 02:50:00,72.7,34.9,29.85,West,270,3.1,4.3,25,0.00,,---,0.00,VWS V14.00,2013-08-27 06:50:00,
2013-08-27 02:52:00,72.7,33.8,29.85,West,270,4.0,4.9,24,0.00,,---,0.00,VWS V14.00,2013-08-27 06:52:00,
2013-08-27 02:54:00,72.7,32.8,29.85,West,270,2.9,3.6,23,0.00,,---,0.00,VWS V14.00,2013-08-27 06:54:00,
2013-08-27 02:56:00,72.7,31.7,29.85,NW,315,3.4,3.8,22,0.00,,---,0.00,VWS V14.00,2013-08-27 06:56:00,
2013-08-27 02:59:00,72.7,31.7,29.85,WSW,248,2.7,4.3,22,0.00,,---,0.00,VWS V14.00,2013-08-27 06:59:00,
2013-08-27 03:00:00,72.7,20.8,29.85,WNW,292,2.5,2.9,14,0.00,,---,0.00,VWS V14.00,2013-08-27 07:00:00,
2013-08-27 03:03:00,72.5,1.6,29.85,West,270,1.3,2.9,6,0.00,,---,0.00,VWS V14.00,2013-08-27 07:03:00,
2013-08-27 03:04:00,72.5,-6.9,29.85,West,270,1.6,3.4,4,0.00,,---,0.00,VWS V14.00,2013-08-27 07:04:00,
2013-08-27 03:05:00,72.5,-6.9,29.85,West,270,2.0,2.0,4,0.00,,---,0.00,VWS V14.00,2013-08-27 07:05:00,
2013-08-27 03:06:00,72.5,1.6,29.85,WNW,292,3.8,3.8,6,0.00,,---,0.00,VWS V14.00,2013-08-27 07:06:00,
2013-08-27 03:10:00,72.5,-12.7,29.85,WSW,248,2.0,2.7,3,0.00,,---,0.00,VWS V14.00,2013-08-27 07:10:00,
2013-08-27 03:11:00,72.5,-12.7,29.85,West,270,2.5,2.7,3,0.00,,---,0.00,VWS V14.00,2013-08-27 07:11:00,
2013-08-27 03:12:00,72.5,-12.7,29.85,WNW,292,0.0,2.5,3,0.00,,---,0.00,VWS V14.00,2013-08-27 07:12:00,
2013-08-27 03:15:00,72.5,-12.7,29.85,WSW,248,3.4,3.4,3,0.00,,---,0.00,VWS V14.00,2013-08-27 07:15:00,
2013-08-27 03:17:00,72.5,1.6,29.85,West,270,1.6,2.5,6,0.00,,---,0.00,VWS V14.00,2013-08-27 07:17:00,
2013-08-27 03:18:00,72.5,10.5,29.85,WSW,248,3.4,3.4,9,0.00,,---,0.00,VWS V14.00,2013-08-27 07:18:00,
2013-08-27 03:19:00,72.5,15.0,29.85,WSW,248,0.0,3.4,11,0.00,,---,0.00,VWS V14.00,2013-08-27 07:19:00,
2013-08-27 03:21:00,72.7,1.8,29.85,West,270,0.0,2.7,6,0.00,,---,0.00,VWS V14.00,2013-08-27 07:21:00,
2013-08-27 03:25:00,72.5,-12.7,29.85,WSW,248,3.1,3.4,3,0.00,,---,0.00,VWS V14.00,2013-08-27 07:25:00,
2013-08-27 03:28:00,72.7,10.6,29.85,WSW,248,0.0,0.0,9,0.00,,---,0.00,VWS V14.00,2013-08-27 07:28:00,
2013-08-27 03:30:00,72.7,-6.8,29.85,WSW,248,2.0,2.9,4,0.00,,---,0.00,VWS V14.00,2013-08-27 07:30:00,
2013-08-27 03:31:00,72.7,28.1,29.85,WNW,292,3.8,3.8,19,0.00,,---,0.00,VWS V14.00,2013-08-27 07:31:00,
2013-08-27 03:35:00,72.7,-12.6,29.85,West,270,0.0,1.6,3,0.00,,---,0.00,VWS V14.00,2013-08-27 07:35:00,
2013-08-27 03:38:00,72.7,-12.6,29.85,West,270,2.7,3.1,3,0.00,,---,0.00,VWS V14.00,2013-08-27 07:38:00,
2013-08-27 03:39:00,72.7,-12.6,29.85,SSW,202,2.9,4.0,3,0.00,,---,0.00,VWS V14.00,2013-08-27 07:39:00,
2013-08-27 03:41:00,72.7,-12.6,29.85,WSW,248,3.4,3.4,3,0.00,,---,0.00,VWS V14.00,2013-08-27 07:41:00,
2013-08-27 03:43:00,72.7,-12.6,29.85,West,270,0.0,3.1,3,0.00,,---,0.00,VWS V14.00,2013-08-27 07:43:00,
2013-08-27 03:44:00,72.7,-12.6,29.85,WSW,248,2.7,2.7,3,0.00,,---,0.00,VWS V14.00,2013-08-27 07:44:00,
2013-08-27 03:45:00,72.7,-12.6,29.85,WSW,248,3.6,3.6,3,0.00,,---,0.00,VWS V14.00,2013-08-27 07:45:00,
2013-08-27 03:47:00,72.7,-12.6,29.85,West,270,3.4,3.4,3,0.00,,---,0.00,VWS V14.00,2013-08-27 07:47:00,
2013-08-27 03:48:00,72.7,-12.6,29.85,WSW,248,1.6,3.4,3,0.00,,---,0.00,VWS V14.00,2013-08-27 07:48:00,
2013-08-27 03:52:00,72.7,-12.6,29.85,WSW,248,5.4,5.4,3,0.00,,---,0.00,VWS V14.00,2013-08-27 07:52:00,
2013-08-27 03:53:00,72.7,28.1,29.85,West,270,4.5,5.4,19,0.00,,---,0.00,VWS V14.00,2013-08-27 07:53:00,
2013-08-27 03:55:00,72.7,30.5,29.85,WNW,292,2.7,5.6,21,0.00,,---,0.00,VWS V14.00,2013-08-27 07:55:00,
2013-08-27 03:56:00,72.7,20.8,29.85,WSW,248,2.9,2.9,14,0.00,,---,0.00,VWS V14.00,2013-08-27 07:56:00,
2013-08-27 03:59:00,72.7,10.6,29.85,WSW,248,2.5,3.6,9,0.00,,---,0.00,VWS V14.00,2013-08-27 07:59:00,
2013-08-27 04:00:00,72.7,1.8,29.85,WNW,292,3.8,3.8,6,0.00,,---,0.00,VWS V14.00,2013-08-27 08:00:00,
2013-08-27 04:01:00,72.7,20.8,29.85,West,270,3.4,3.8,14,0.00,,---,0.00,VWS V14.00,2013-08-27 08:01:00,
2013-08-27 04:04:00,72.9,20.9,29.88,WSW,248,2.7,3.8,14,0.00,,---,0.00,VWS V14.00,2013-08-27 08:04:00,
2013-08-27 04:05:00,72.9,20.9,29.88,WSW,248,2.9,4.9,14,0.00,,---,0.00,VWS V14.00,2013-08-27 08:05:00,
2013-08-27 04:07:00,72.9,20.9,29.88,West,270,5.6,5.6,14,0.00,,---,0.00,VWS V14.00,2013-08-27 08:07:00,
2013-08-27 04:08:00,73.0,15.5,29.88,West,270,3.8,5.6,11,0.00,,---,0.00,VWS V14.00,2013-08-27 08:08:00,
2013-08-27 04:09:00,73.0,10.9,29.88,West,270,6.3,6.3,9,0.00,,---,0.00,VWS V14.00,2013-08-27 08:09:00,
2013-08-27 04:11:00,73.0,-12.3,29.88,WSW,248,2.5,6.0,3,0.00,,---,0.00,VWS V14.00,2013-08-27 08:11:00,
2013-08-27 04:15:00,73.0,-12.3,29.88,WSW,248,2.5,5.8,3,0.00,,---,0.00,VWS V14.00,2013-08-27 08:15:00,
2013-08-27 04:16:00,73.0,-12.3,29.88,SW,225,3.8,3.8,3,0.00,,---,0.00,VWS V14.00,2013-08-27 08:16:00,
2013-08-27 04:17:00,73.0,-12.3,29.85,West,270,2.9,3.8,3,0.00,,---,0.00,VWS V14.00,2013-08-27 08:17:00,
2013-08-27 04:18:00,73.0,-12.3,29.85,WNW,292,3.8,3.8,3,0.00,,---,0.00,VWS V14.00,2013-08-27 08:18:00,
2013-08-27 04:22:00,73.0,-12.3,29.85,WSW,248,2.5,5.6,3,0.00,,---,0.00,VWS V14.00,2013-08-27 08:22:00,
2013-08-27 04:23:00,73.0,-12.3,29.85,SW,225,4.3,4.3,3,0.00,,---,0.00,VWS V14.00,2013-08-27 08:23:00,
2013-08-27 04:25:00,73.0,-12.3,29.85,WSW,248,2.9,4.9,3,0.00,,---,0.00,VWS V14.00,2013-08-27 08:25:00,
2013-08-27 04:27:00,72.9,-12.5,29.85,West,270,3.4,4.0,3,0.00,,---,0.00,VWS V14.00,2013-08-27 08:27:00,
2013-08-27 04:29:00,72.9,-12.5,29.85,WSW,248,3.4,4.0,3,0.00,,---,0.00,VWS V14.00,2013-08-27 08:29:00,
2013-08-27 04:30:00,72.9,-6.6,29.85,West,270,4.0,4.0,4,0.00,,---,0.00,VWS V14.00,2013-08-27 08:30:00,
2013-08-27 04:32:00,72.9,-12.5,29.85,WSW,248,4.3,6.0,3,0.00,,---,0.00,VWS V14.00,2013-08-27 08:32:00,
2013-08-27 04:33:00,72.9,-6.6,29.85,West,270,2.0,4.3,4,0.00,,---,0.00,VWS V14.00,2013-08-27 08:33:00,
2013-08-27 04:36:00,72.9,10.8,29.85,WSW,248,0.0,3.8,9,0.00,,---,0.00,VWS V14.00,2013-08-27 08:36:00,
2013-08-27 04:37:00,72.9,10.8,29.85,WNW,292,2.5,2.5,9,0.00,,---,0.00,VWS V14.00,2013-08-27 08:37:00,
2013-08-27 04:39:00,72.9,-6.6,29.85,WSW,248,2.9,3.6,4,0.00,,---,0.00,VWS V14.00,2013-08-27 08:39:00,
2013-08-27 04:40:00,72.9,24.1,29.85,WSW,248,4.7,4.9,16,0.00,,---,0.00,VWS V14.00,2013-08-27 08:40:00,
2013-08-27 04:41:00,72.9,24.1,29.85,WSW,248,3.6,4.7,16,0.00,,---,0.00,VWS V14.00,2013-08-27 08:41:00,
2013-08-27 04:43:00,72.9,15.3,29.85,WSW,248,4.3,4.3,11,0.00,,---,0.00,VWS V14.00,2013-08-27 08:43:00,
2013-08-27 04:46:00,72.9,20.9,29.85,West,270,3.8,6.5,14,0.00,,---,0.00,VWS V14.00,2013-08-27 08:46:00,
2013-08-27 04:47:00,72.9,20.9,29.85,SW,225,3.8,3.8,14,0.00,,---,0.00,VWS V14.00,2013-08-27 08:47:00,
2013-08-27 04:48:00,72.9,31.8,29.85,WSW,248,2.5,5.8,22,0.00,,---,0.00,VWS V14.00,2013-08-27 08:48:00,
2013-08-27 04:50:00,72.9,31.8,29.85,West,270,3.4,6.0,22,0.00,,---,0.00,VWS V14.00,2013-08-27 08:50:00,
2013-08-27 04:51:00,72.9,31.8,29.85,West,270,3.4,4.9,22,0.00,,---,0.00,VWS V14.00,2013-08-27 08:51:00,
2013-08-27 04:53:00,73.0,24.2,29.85,West,270,4.7,4.9,16,0.00,,---,0.00,VWS V14.00,2013-08-27 08:53:00,
2013-08-27 04:54:00,73.0,28.4,29.85,WNW,292,2.7,5.6,19,0.00,,---,0.00,VWS V14.00,2013-08-27 08:54:00,
2013-08-27 04:56:00,73.0,32.0,29.85,WNW,292,2.5,6.0,22,0.00,,---,0.00,VWS V14.00,2013-08-27 08:56:00,
2013-08-27 04:57:00,73.0,21.1,29.85,WNW,292,3.1,3.8,14,0.00,,---,0.00,VWS V14.00,2013-08-27 08:57:00,
2013-08-27 04:58:00,73.0,21.1,29.85,NW,315,5.6,5.6,14,0.00,,---,0.00,VWS V14.00,2013-08-27 08:58:00,
2013-08-27 05:00:00,73.0,2.0,29.85,West,270,3.4,4.0,6,0.00,,---,0.00,VWS V14.00,2013-08-27 09:00:00,
2013-08-27 05:01:00,73.0,-6.5,29.85,WSW,248,2.0,3.4,4,0.00,,---,0.00,VWS V14.00,2013-08-27 09:01:00,
2013-08-27 05:02:00,73.0,-12.3,29.85,WNW,292,2.9,5.8,3,0.00,,---,0.00,VWS V14.00,2013-08-27 09:02:00,
2013-08-27 05:04:00,73.0,-12.3,29.85,WSW,248,3.8,4.3,3,0.00,,---,0.00,VWS V14.00,2013-08-27 09:04:00,
2013-08-27 05:06:00,73.0,-12.3,29.85,WNW,292,3.4,5.4,3,0.00,,---,0.00,VWS V14.00,2013-08-27 09:06:00,
2013-08-27 05:07:00,73.0,-12.3,29.85,WNW,292,3.4,3.4,3,0.00,,---,0.00,VWS V14.00,2013-08-27 09:07:00,
2013-08-27 05:08:00,73.0,-12.3,29.85,WSW,248,2.0,3.4,3,0.00,,---,0.00,VWS V14.00,2013-08-27 09:08:00,
2013-08-27 05:11:00,73.0,-12.3,29.85,West,270,2.9,3.4,3,0.00,,---,0.00,VWS V14.00,2013-08-27 09:11:00,
2013-08-27 05:12:00,73.0,-12.3,29.85,West,270,2.7,2.9,3,0.00,,---,0.00,VWS V14.00,2013-08-27 09:12:00,
2013-08-27 05:13:00,73.0,-12.3,29.85,West,270,3.8,4.3,3,0.00,,---,0.00,VWS V14.00,2013-08-27 09:13:00,
2013-08-27 05:17:00,73.0,-12.3,29.85,West,270,3.6,4.3,3,0.00,,---,0.00,VWS V14.00,2013-08-27 09:17:00,
2013-08-27 05:18:00,73.0,-12.3,29.85,West,270,3.4,4.3,3,0.00,,---,0.00,VWS V14.00,2013-08-27 09:18:00,
2013-08-27 05:19:00,73.0,-12.3,29.85,West,270,3.8,3.8,3,0.00,,---,0.00,VWS V14.00,2013-08-27 09:19:00,
2013-08-27 05:22:00,73.0,-12.3,29.85,West,270,2.9,3.8,3,0.00,,---,0.00,VWS V14.00,2013-08-27 09:22:00,
2013-08-27 05:24:00,73.0,-12.3,29.85,WSW,248,2.7,3.6,3,0.00,,---,0.00,VWS V14.00,2013-08-27 09:24:00,
2013-08-27 05:25:00,73.0,-12.3,29.85,West,270,5.8,8.7,3,0.00,,---,0.00,VWS V14.00,2013-08-27 09:25:00,
2013-08-27 05:29:00,73.2,-12.2,29.85,WSW,248,7.4,7.4,3,0.00,,---,0.00,VWS V14.00,2013-08-27 09:29:00,
2013-08-27 05:30:00,73.2,-12.2,29.85,WSW,248,4.9,7.4,3,0.00,,---,0.00,VWS V14.00,2013-08-27 09:30:00,
2013-08-27 05:32:00,73.2,-12.2,29.85,WNW,292,3.6,4.3,3,0.00,,---,0.00,VWS V14.00,2013-08-27 09:32:00,
2013-08-27 05:33:00,73.2,-12.2,29.85,WSW,248,2.9,3.6,3,0.00,,---,0.00,VWS V14.00,2013-08-27 09:33:00,
2013-08-27 05:36:00,73.4,-20.0,29.85,NW,315,4.7,4.9,2,0.00,,---,0.00,VWS V14.00,2013-08-27 09:36:00,
2013-08-27 05:37:00,73.4,-20.0,29.85,West,270,3.6,4.7,2,0.00,,---,0.00,VWS V14.00,2013-08-27 09:37:00,
2013-08-27 05:38:00,73.4,-20.0,29.85,West,270,3.6,5.6,2,0.00,,---,0.00,VWS V14.00,2013-08-27 09:38:00,
2013-08-27 05:40:00,73.4,-20.0,29.85,West,270,3.6,7.8,2,0.00,,---,0.00,VWS V14.00,2013-08-27 09:40:00,
2013-08-27 05:42:00,73.4,-20.0,29.85,West,270,4.3,4.5,2,0.00,,---,0.00,VWS V14.00,2013-08-27 09:42:00,
2013-08-27 05:44:00,73.4,-20.0,29.85,West,270,4.9,6.5,2,0.00,,---,0.00,VWS V14.00,2013-08-27 09:44:00,
2013-08-27 05:45:00,73.4,-20.0,29.85,WSW,248,2.7,4.9,2,0.00,,---,0.00,VWS V14.00,2013-08-27 09:45:00,
2013-08-27 05:48:00,73.4,-20.0,29.85,WSW,248,6.5,6.5,2,0.00,,---,0.00,VWS V14.00,2013-08-27 09:48:00,
2013-08-27 05:50:00,73.4,-20.0,29.85,West,270,4.9,7.4,2,0.00,,---,0.00,VWS V14.00,2013-08-27 09:50:00,
2013-08-27 05:52:00,73.4,-20.0,29.85,West,270,6.0,6.0,2,0.00,,---,0.00,VWS V14.00,2013-08-27 09:52:00,
2013-08-27 05:53:00,73.4,-20.0,29.85,WNW,292,3.6,6.0,2,0.00,,---,0.00,VWS V14.00,2013-08-27 09:53:00,
2013-08-27 05:54:00,73.4,-20.0,29.85,SW,225,4.3,6.5,2,0.00,,---,0.00,VWS V14.00,2013-08-27 09:54:00,
2013-08-27 05:57:00,73.2,-12.2,29.85,WNW,292,3.4,3.8,3,0.00,,---,0.00,VWS V14.00,2013-08-27 09:57:00,
2013-08-27 05:58:00,73.2,-12.2,29.85,WSW,248,4.7,5.6,3,0.00,,---,0.00,VWS V14.00,2013-08-27 09:58:00,
2013-08-27 05:59:00,73.2,-12.2,29.85,West,270,3.4,5.4,3,0.00,,---,0.00,VWS V14.00,2013-08-27 09:59:00,
2013-08-27 06:04:00,73.2,-12.2,29.82,West,270,4.9,4.9,3,0.00,,---,0.00,VWS V14.00,2013-08-27 10:04:00,
2013-08-27 06:06:00,73.2,-12.2,29.82,West,270,3.6,5.6,3,0.00,,---,0.00,VWS V14.00,2013-08-27 10:06:00,
2013-08-27 06:08:00,73.2,-12.2,29.82,West,270,3.1,3.4,3,0.00,,---,0.00,VWS V14.00,2013-08-27 10:08:00,
2013-08-27 06:09:00,73.2,-12.2,29.82,West,270,2.9,4.0,3,0.00,,---,0.00,VWS V14.00,2013-08-27 10:09:00,
2013-08-27 06:12:00,73.2,-12.2,29.82,WNW,292,4.3,4.3,3,0.00,,---,0.00,VWS V14.00,2013-08-27 10:12:00,
2013-08-27 06:13:00,73.0,33.1,29.82,West,270,5.6,5.6,23,0.00,,---,0.00,VWS V14.00,2013-08-27 10:13:00,
2013-08-27 06:14:00,73.0,33.1,29.82,West,270,4.7,5.8,23,0.00,,---,0.00,VWS V14.00,2013-08-27 10:14:00,
2013-08-27 06:18:00,73.2,34.3,29.82,West,270,2.5,4.3,24,0.00,,---,0.00,VWS V14.00,2013-08-27 10:18:00,
2013-08-27 06:20:00,73.2,34.3,29.82,West,270,3.6,4.5,24,0.00,,---,0.00,VWS V14.00,2013-08-27 10:20:00,
2013-08-27 06:23:00,73.2,34.3,29.82,West,270,4.0,5.4,24,0.00,,---,0.00,VWS V14.00,2013-08-27 10:23:00,
2013-08-27 06:24:00,73.2,34.3,29.82,SW,225,1.3,4.0,24,0.00,,---,0.00,VWS V14.00,2013-08-27 10:24:00,
2013-08-27 06:25:00,73.2,34.3,29.82,NW,315,4.0,7.6,24,0.00,,---,0.00,VWS V14.00,2013-08-27 10:25:00,
2013-08-27 06:27:00,73.2,34.3,29.82,West,270,3.8,4.3,24,0.00,,---,0.00,VWS V14.00,2013-08-27 10:27:00,
2013-08-27 06:29:00,73.2,34.3,29.82,West,270,3.6,7.2,24,0.00,,---,0.00,VWS V14.00,2013-08-27 10:29:00,
2013-08-27 06:30:00,73.2,34.3,29.82,West,270,3.4,6.3,24,0.00,,---,0.00,VWS V14.00,2013-08-27 10:30:00,
2013-08-27 06:33:00,73.2,34.3,29.82,West,270,4.9,6.3,24,0.00,,---,0.00,VWS V14.00,2013-08-27 10:33:00,
2013-08-27 06:34:00,73.2,34.3,29.82,West,270,3.4,4.9,24,0.00,,---,0.00,VWS V14.00,2013-08-27 10:34:00,
2013-08-27 06:36:00,73.2,34.3,29.82,West,270,4.0,5.6,24,0.00,,---,0.00,VWS V14.00,2013-08-27 10:36:00,
2013-08-27 06:37:00,73.2,34.3,29.82,WSW,248,4.3,5.4,24,0.00,,---,0.00,VWS V14.00,2013-08-27 10:37:00,
2013-08-27 06:40:00,73.4,34.5,29.82,WNW,292,4.3,7.2,24,0.00,,---,0.00,VWS V14.00,2013-08-27 10:40:00,
2013-08-27 06:43:00,73.4,34.5,29.82,West,270,3.8,7.2,24,0.00,,---,0.00,VWS V14.00,2013-08-27 10:43:00,
2013-08-27 06:45:00,73.4,34.5,29.82,WNW,292,6.5,6.5,24,0.00,,---,0.00,VWS V14.00,2013-08-27 10:45:00,
2013-08-27 06:46:00,73.4,34.5,29.82,WNW,292,4.3,6.5,24,0.00,,---,0.00,VWS V14.00,2013-08-27 10:46:00,
2013-08-27 06:48:00,73.4,34.5,29.85,NE,45,7.8,7.8,24,0.00,,---,0.00,VWS V14.00,2013-08-27 10:48:00,
2013-08-27 06:49:00,73.4,34.5,29.85,West,270,6.5,7.8,24,0.00,,---,0.00,VWS V14.00,2013-08-27 10:49:00,
2013-08-27 06:50:00,73.4,34.5,29.85,WNW,292,4.3,6.5,24,0.00,,---,0.00,VWS V14.00,2013-08-27 10:50:00,
2013-08-27 06:51:00,73.4,34.5,29.85,West,270,4.7,6.3,24,0.00,,---,0.00,VWS V14.00,2013-08-27 10:51:00,
2013-08-27 06:53:00,73.4,34.5,29.85,West,270,4.9,4.9,24,0.00,,---,0.00,VWS V14.00,2013-08-27 10:53:00,
2013-08-27 06:57:00,73.9,34.9,29.85,West,270,3.8,6.3,24,0.00,,---,0.00,VWS V14.00,2013-08-27 10:57:00,
2013-08-27 06:58:00,73.9,34.9,29.85,WNW,292,4.3,4.3,24,0.00,,---,0.00,VWS V14.00,2013-08-27 10:58:00,
2013-08-27 07:00:00,73.9,34.9,29.85,West,270,4.5,4.5,24,0.00,,---,0.00,VWS V14.00,2013-08-27 11:00:00,
2013-08-27 07:05:00,73.9,34.9,29.85,West,270,3.1,6.0,24,0.00,,---,0.00,VWS V14.00,2013-08-27 11:05:00,
2013-08-27 07:06:00,73.9,34.9,29.85,West,270,4.3,4.3,24,0.00,,---,0.00,VWS V14.00,2013-08-27 11:06:00,
2013-08-27 07:07:00,73.9,34.9,29.85,WSW,248,6.7,6.7,24,0.00,,---,0.00,VWS V14.00,2013-08-27 11:07:00,
2013-08-27 07:10:00,73.9,34.9,29.85,WSW,248,4.0,4.0,24,0.00,,---,0.00,VWS V14.00,2013-08-27 11:10:00,
2013-08-27 07:12:00,73.9,34.9,29.85,West,270,5.8,7.2,24,0.00,,---,0.00,VWS V14.00,2013-08-27 11:12:00,
2013-08-27 07:13:00,73.9,37.9,29.85,WNW,292,3.1,6.5,27,0.00,,---,0.00,VWS V14.00,2013-08-27 11:13:00,
2013-08-27 07:14:00,73.9,37.9,29.85,WNW,292,3.6,3.8,27,0.00,,---,0.00,VWS V14.00,2013-08-27 11:14:00,
2013-08-27 07:15:00,73.9,37.9,29.85,WNW,292,3.1,4.0,27,0.00,,---,0.00,VWS V14.00,2013-08-27 11:15:00,
2013-08-27 07:17:00,73.9,37.9,29.85,WNW,292,4.9,7.6,27,0.00,,---,0.00,VWS V14.00,2013-08-27 11:17:00,
2013-08-27 07:19:00,73.9,37.9,29.85,WNW,292,4.3,7.6,27,0.00,,---,0.00,VWS V14.00,2013-08-27 11:19:00,
2013-08-27 07:20:00,73.9,37.9,29.85,WNW,292,3.4,5.4,27,0.00,,---,0.00,VWS V14.00,2013-08-27 11:20:00,
2013-08-27 07:21:00,73.9,37.9,29.85,West,270,2.7,3.4,27,0.00,,---,0.00,VWS V14.00,2013-08-27 11:21:00,
2013-08-27 07:24:00,73.9,37.9,29.85,West,270,4.9,7.6,27,0.00,,---,0.00,VWS V14.00,2013-08-27 11:24:00,
2013-08-27 07:25:00,73.9,37.9,29.85,WNW,292,3.6,4.9,27,0.00,,---,0.00,VWS V14.00,2013-08-27 11:25:00,
2013-08-27 07:30:00,74.1,38.0,29.85,WNW,292,9.4,10.1,27,0.00,,---,0.00,VWS V14.00,2013-08-27 11:30:00,
2013-08-27 07:31:00,74.1,38.0,29.85,West,270,5.4,9.4,27,0.00,,---,0.00,VWS V14.00,2013-08-27 11:31:00,
2013-08-27 07:32:00,74.1,38.0,29.85,WSW,248,3.1,5.4,27,0.00,,---,0.00,VWS V14.00,2013-08-27 11:32:00,
2013-08-27 07:34:00,74.1,38.0,29.85,West,270,3.6,4.0,27,0.00,,---,0.00,VWS V14.00,2013-08-27 11:34:00,
2013-08-27 07:37:00,74.1,38.0,29.85,NW,315,2.7,8.1,27,0.00,,---,0.00,VWS V14.00,2013-08-27 11:37:00,
2013-08-27 07:38:00,74.1,38.0,29.85,West,270,3.8,4.9,27,0.00,,---,0.00,VWS V14.00,2013-08-27 11:38:00,
2013-08-27 07:39:00,74.1,38.0,29.85,WNW,292,5.8,5.8,27,0.00,,---,0.00,VWS V14.00,2013-08-27 11:39:00,
2013-08-27 07:43:00,74.1,38.0,29.85,West,270,2.5,3.1,27,0.00,,---,0.00,VWS V14.00,2013-08-27 11:43:00,
2013-08-27 07:44:00,74.1,38.0,29.85,NE,45,5.4,5.4,27,0.00,,---,0.00,VWS V14.00,2013-08-27 11:44:00,
2013-08-27 07:45:00,74.1,38.0,29.85,West,270,5.6,7.8,27,0.00,,---,0.00,VWS V14.00,2013-08-27 11:45:00,
2013-08-27 07:46:00,74.1,38.0,29.85,West,270,6.0,6.0,27,0.00,,---,0.00,VWS V14.00,2013-08-27 11:46:00,
2013-08-27 07:49:00,74.1,38.0,29.85,West,270,4.0,6.5,27,0.00,,---,0.00,VWS V14.00,2013-08-27 11:49:00,
2013-08-27 07:51:00,74.1,38.0,29.85,West,270,4.0,4.0,27,0.00,,---,0.00,VWS V14.00,2013-08-27 11:51:00,
2013-08-27 07:53:00,75.4,37.2,29.85,WNW,292,3.6,3.6,25,0.00,,---,0.00,VWS V14.00,2013-08-27 11:53:00,
2013-08-27 07:56:00,75.4,37.2,29.85,SW,225,4.3,6.5,25,0.00,,---,0.00,VWS V14.00,2013-08-27 11:56:00,
2013-08-27 07:58:00,75.4,37.2,29.85,WSW,248,3.6,6.0,25,0.00,,---,0.00,VWS V14.00,2013-08-27 11:58:00,
2013-08-27 07:59:00,75.4,37.2,29.85,WNW,292,3.4,4.3,25,0.00,,---,0.00,VWS V14.00,2013-08-27 11:59:00,
2013-08-27 08:01:00,75.4,37.2,29.85,NE,45,5.4,5.6,25,0.00,,---,0.00,VWS V14.00,2013-08-27 12:01:00,
2013-08-27 08:02:00,75.4,37.2,29.85,SE,135,2.5,5.4,25,0.00,,---,0.00,VWS V14.00,2013-08-27 12:02:00,
2013-08-27 08:03:00,75.4,37.2,29.85,SSW,202,2.9,3.8,25,0.00,,---,0.00,VWS V14.00,2013-08-27 12:03:00,
2013-08-27 08:04:00,75.4,37.2,29.85,WNW,292,3.8,5.8,25,0.00,,---,0.00,VWS V14.00,2013-08-27 12:04:00,
2013-08-27 08:07:00,75.4,37.2,29.85,West,270,4.0,4.3,25,0.00,,---,0.00,VWS V14.00,2013-08-27 12:07:00,
2013-08-27 08:09:00,75.4,37.2,29.85,WNW,292,4.0,5.6,25,0.00,,---,0.00,VWS V14.00,2013-08-27 12:09:00,
2013-08-27 08:10:00,75.4,37.2,29.85,WNW,292,4.0,4.0,25,0.00,,---,0.00,VWS V14.00,2013-08-27 12:10:00,
2013-08-27 08:11:00,75.4,37.2,29.85,West,270,2.9,6.5,25,0.00,,---,0.00,VWS V14.00,2013-08-27 12:11:00,
2013-08-27 08:12:00,75.4,37.2,29.85,West,270,3.1,4.0,25,0.00,,---,0.00,VWS V14.00,2013-08-27 12:12:00,
2013-08-27 08:15:00,75.4,37.2,29.85,WNW,292,4.3,5.8,25,0.00,,---,0.00,VWS V14.00,2013-08-27 12:15:00,
2013-08-27 08:17:00,75.4,37.2,29.85,WNW,292,7.8,10.1,25,0.00,,---,0.00,VWS V14.00,2013-08-27 12:17:00,
2013-08-27 08:19:00,75.4,37.2,29.85,West,270,4.3,5.4,25,0.00,,---,0.00,VWS V14.00,2013-08-27 12:19:00,
2013-08-27 08:20:00,75.6,40.2,29.85,NNW,338,3.8,4.3,28,0.00,,---,0.00,VWS V14.00,2013-08-27 12:20:00,
2013-08-27 08:21:00,75.7,40.3,29.85,WNW,292,2.7,3.8,28,0.00,,---,0.00,VWS V14.00,2013-08-27 12:21:00,
2013-08-27 08:24:00,76.5,41.0,29.85,NNW,338,4.0,4.0,28,0.00,,---,0.00,VWS V14.00,2013-08-27 12:24:00,
2013-08-27 08:28:00,76.5,38.1,29.85,WSW,248,6.5,8.5,25,0.00,,---,0.00,VWS V14.00,2013-08-27 12:28:00,
2013-08-27 08:30:00,76.1,37.8,29.85,WNW,292,5.8,5.8,25,0.00,,---,0.00,VWS V14.00,2013-08-27 12:30:00,
2013-08-27 08:33:00,76.3,38.9,29.85,WNW,292,5.8,8.7,26,0.00,,---,0.00,VWS V14.00,2013-08-27 12:33:00,
2013-08-27 08:35:00,77.9,39.3,29.85,WSW,248,3.1,5.6,25,0.00,,---,0.00,VWS V14.00,2013-08-27 12:35:00,
2013-08-27 08:37:00,77.9,39.3,29.85,NW,315,4.9,8.7,25,0.00,,---,0.00,VWS V14.00,2013-08-27 12:37:00,
2013-08-27 08:38:00,78.4,39.7,29.85,West,270,2.9,4.9,25,0.00,,---,0.00,VWS V14.00,2013-08-27 12:38:00,
2013-08-27 08:41:00,79.5,39.6,29.85,WNW,292,2.5,7.2,24,0.00,,---,0.00,VWS V14.00,2013-08-27 12:41:00,
2013-08-27 08:43:00,79.7,38.7,29.85,WNW,292,7.4,9.8,23,0.00,,---,0.00,VWS V14.00,2013-08-27 12:43:00,
2013-08-27 08:45:00,79.9,38.8,29.85,West,270,7.8,7.8,23,0.00,,---,0.00,VWS V14.00,2013-08-27 12:45:00,
2013-08-27 08:48:00,79.9,38.8,29.85,NNW,338,3.1,5.4,23,0.00,,---,0.00,VWS V14.00,2013-08-27 12:48:00,
2013-08-27 08:49:00,79.9,38.8,29.85,SW,225,3.4,6.3,23,0.00,,---,0.00,VWS V14.00,2013-08-27 12:49:00,
2013-08-27 08:50:00,79.9,38.8,29.85,NNE,22,2.7,3.4,23,0.00,,---,0.00,VWS V14.00,2013-08-27 12:50:00,
2013-08-27 08:51:00,80.6,38.3,29.85,NNW,338,5.4,5.4,22,0.00,,---,0.00,VWS V14.00,2013-08-27 12:51:00,
2013-08-27 08:53:00,80.6,38.3,29.85,North,0,5.6,5.6,22,0.00,,---,0.00,VWS V14.00,2013-08-27 12:53:00,
2013-08-27 08:56:00,79.7,38.7,29.85,NNW,338,5.6,6.5,23,0.00,,---,0.00,VWS V14.00,2013-08-27 12:56:00,
2013-08-27 08:57:00,79.3,38.4,29.85,WNW,292,4.9,7.8,23,0.00,,---,0.00,VWS V14.00,2013-08-27 12:57:00,
2013-08-27 08:58:00,79.2,38.2,29.85,WNW,292,3.1,4.9,23,0.00,,---,0.00,VWS V14.00,2013-08-27 12:58:00,
2013-08-27 08:59:00,79.2,38.2,29.85,NNW,338,3.6,6.0,23,0.00,,---,0.00,VWS V14.00,2013-08-27 12:59:00,
2013-08-27 09:03:00,79.3,38.4,29.85,West,270,4.7,7.8,23,0.00,,---,0.00,VWS V14.00,2013-08-27 13:03:00,
2013-08-27 09:08:00,80.2,39.1,29.85,WNW,292,3.1,3.6,23,0.00,,---,0.00,VWS V14.00,2013-08-27 13:08:00,
2013-08-27 09:09:00,80.8,38.4,29.85,NW,315,4.3,4.7,22,0.00,,---,0.00,VWS V14.00,2013-08-27 13:09:00,
2013-08-27 09:10:00,81.0,38.6,29.85,WSW,248,2.0,4.7,22,0.00,,---,0.00,VWS V14.00,2013-08-27 13:10:00,
2013-08-27 09:11:00,81.5,39.0,29.85,NW,315,4.3,4.3,22,0.00,,---,0.00,VWS V14.00,2013-08-27 13:11:00,
2013-08-27 09:14:00,81.5,39.0,29.85,NNW,338,4.7,6.5,22,0.00,,---,0.00,VWS V14.00,2013-08-27 13:14:00,
2013-08-27 09:15:00,81.5,39.0,29.85,NNE,22,3.4,4.7,22,0.00,,---,0.00,VWS V14.00,2013-08-27 13:15:00,
2013-08-27 09:19:00,82.2,39.6,29.85,ENE,68,3.4,11.4,22,0.00,,---,0.00,VWS V14.00,2013-08-27 13:19:00,
2013-08-27 09:22:00,83.3,39.3,29.85,NNW,338,5.4,7.2,21,0.00,,---,0.00,VWS V14.00,2013-08-27 13:22:00,
2013-08-27 09:24:00,83.7,39.6,29.85,NNW,338,3.4,6.0,21,0.00,,---,0.00,VWS V14.00,2013-08-27 13:24:00,
2013-08-27 09:26:00,83.8,39.8,29.85,WNW,292,2.5,5.6,21,0.00,,---,0.00,VWS V14.00,2013-08-27 13:26:00,
2013-08-27 09:27:00,83.5,39.5,29.85,North,0,6.3,8.5,21,0.00,,---,0.00,VWS V14.00,2013-08-27 13:27:00,
2013-08-27 09:32:00,82.4,38.6,29.85,North,0,8.5,8.5,21,0.00,,---,0.00,VWS V14.00,2013-08-27 13:32:00,
2013-08-27 09:33:00,82.0,38.3,29.85,North,0,3.6,8.5,21,0.00,,---,0.00,VWS V14.00,2013-08-27 13:33:00,
2013-08-27 09:34:00,81.5,37.8,29.85,NNE,22,4.9,5.6,21,0.00,,---,0.00,VWS V14.00,2013-08-27 13:34:00,
2013-08-27 09:38:00,80.8,37.2,29.85,NNW,338,5.6,6.7,21,0.00,,---,0.00,VWS V14.00,2013-08-27 13:38:00,
2013-08-27 09:39:00,80.8,37.2,29.85,NNE,22,3.1,6.0,21,0.00,,---,0.00,VWS V14.00,2013-08-27 13:39:00,
2013-08-27 09:43:00,80.6,37.1,29.85,NE,45,2.7,4.3,21,0.00,,---,0.00,VWS V14.00,2013-08-27 13:43:00,
2013-08-27 09:45:00,80.2,38.0,29.85,WNW,292,5.8,9.2,22,0.00,,---,0.00,VWS V14.00,2013-08-27 13:45:00,
2013-08-27 09:47:00,80.1,37.8,29.88,NNW,338,4.0,4.7,22,0.00,,---,0.00,VWS V14.00,2013-08-27 13:47:00,
2013-08-27 09:48:00,80.1,37.8,29.88,NNW,338,7.4,7.8,22,0.00,,---,0.00,VWS V14.00,2013-08-27 13:48:00,
2013-08-27 09:50:00,80.4,38.1,29.88,North,0,1.3,6.3,22,0.00,,---,0.00,VWS V14.00,2013-08-27 13:50:00,
2013-08-27 09:52:00,80.4,38.1,29.88,North,0,6.3,6.3,22,0.00,,---,0.00,VWS V14.00,2013-08-27 13:52:00,
2013-08-27 09:54:00,81.1,37.5,29.88,North,0,3.1,6.5,21,0.00,,---,0.00,VWS V14.00,2013-08-27 13:54:00,
2013-08-27 09:55:00,82.0,38.3,29.88,North,0,2.5,3.6,21,0.00,,---,0.00,VWS V14.00,2013-08-27 13:55:00,
2013-08-27 09:56:00,82.0,38.3,29.88,WSW,248,2.5,4.0,21,0.00,,---,0.00,VWS V14.00,2013-08-27 13:56:00,
2013-08-27 09:58:00,83.1,39.2,29.88,NNE,22,3.1,3.1,21,0.00,,---,0.00,VWS V14.00,2013-08-27 13:58:00,
2013-08-27 10:00:00,82.2,38.4,29.88,NNE,22,0.0,8.5,21,0.00,,---,0.00,VWS V14.00,2013-08-27 14:00:00,
2013-08-27 10:02:00,82.0,38.3,29.85,NNW,338,2.9,7.2,21,0.00,,---,0.00,VWS V14.00,2013-08-27 14:02:00,
2013-08-27 10:03:00,82.0,38.3,29.85,North,0,3.1,4.9,21,0.00,,---,0.00,VWS V14.00,2013-08-27 14:03:00,
2013-08-27 10:04:00,81.7,38.0,29.85,NNE,22,5.6,5.6,21,0.00,,---,0.00,VWS V14.00,2013-08-27 14:04:00,
2013-08-27 10:05:00,81.7,38.0,29.85,NNE,22,2.5,5.6,21,0.00,,---,0.00,VWS V14.00,2013-08-27 14:05:00,
2013-08-27 10:06:00,81.9,38.1,29.85,NNW,338,3.6,5.6,21,0.00,,---,0.00,VWS V14.00,2013-08-27 14:06:00,
2013-08-27 10:09:00,82.2,38.4,29.85,NNE,22,6.3,6.3,21,0.00,,---,0.00,VWS V14.00,2013-08-27 14:09:00,
2013-08-27 10:10:00,82.4,38.6,29.85,North,0,5.8,7.6,21,0.00,,---,0.00,VWS V14.00,2013-08-27 14:10:00,
2013-08-27 10:11:00,82.4,38.6,29.85,WNW,292,2.9,6.0,21,0.00,,---,0.00,VWS V14.00,2013-08-27 14:11:00,
2013-08-27 10:14:00,84.2,38.8,29.85,North,0,2.5,8.1,20,0.00,,---,0.00,VWS V14.00,2013-08-27 14:14:00,
2013-08-27 10:15:00,84.2,38.8,29.85,NNW,338,3.4,8.1,20,0.00,,---,0.00,VWS V14.00,2013-08-27 14:15:00,
2013-08-27 10:17:00,82.8,37.6,29.82,ENE,68,2.7,8.7,20,0.00,,---,0.00,VWS V14.00,2013-08-27 14:17:00,
2013-08-27 10:20:00,82.9,37.8,29.82,North,0,2.5,6.3,20,0.00,,---,0.00,VWS V14.00,2013-08-27 14:20:00,
2013-08-27 10:24:00,83.5,38.2,29.82,NNW,338,2.9,4.0,20,0.00,,---,0.00,VWS V14.00,2013-08-27 14:24:00,
2013-08-27 10:25:00,83.3,38.1,29.82,NNW,338,7.6,7.6,20,0.00,,---,0.00,VWS V14.00,2013-08-27 14:25:00,
2013-08-27 10:26:00,82.9,37.8,29.82,West,270,2.5,7.6,20,0.00,,---,0.00,VWS V14.00,2013-08-27 14:26:00,
2013-08-27 10:29:00,81.9,36.9,29.82,NNW,338,4.3,5.4,20,0.00,,---,0.00,VWS V14.00,2013-08-27 14:29:00,
2013-08-27 10:31:00,81.3,37.7,29.82,NNE,22,1.6,4.9,21,0.00,,---,0.00,VWS V14.00,2013-08-27 14:31:00,
2013-08-27 10:33:00,81.1,37.5,29.85,NW,315,3.1,3.4,21,0.00,,---,0.00,VWS V14.00,2013-08-27 14:33:00,
2013-08-27 10:36:00,81.5,37.8,29.85,North,0,7.2,7.2,21,0.00,,---,0.00,VWS V14.00,2013-08-27 14:36:00,
2013-08-27 10:38:00,81.5,37.8,29.85,North,0,1.6,3.6,21,0.00,,---,0.00,VWS V14.00,2013-08-27 14:38:00,
2013-08-27 10:40:00,81.7,38.0,29.85,NW,315,5.4,5.8,21,0.00,,---,0.00,VWS V14.00,2013-08-27 14:40:00,
2013-08-27 10:41:00,81.3,37.7,29.85,NNE,22,4.3,10.5,21,0.00,,---,0.00,VWS V14.00,2013-08-27 14:41:00,
2013-08-27 10:43:00,81.5,37.8,29.85,NNE,22,3.6,8.5,21,0.00,,---,0.00,VWS V14.00,2013-08-27 14:43:00,
2013-08-27 10:46:00,84.0,38.7,29.85,NNW,338,6.0,6.5,20,0.00,,---,0.00,VWS V14.00,2013-08-27 14:46:00,
2013-08-27 10:48:00,83.5,38.2,29.85,NNW,338,3.6,4.9,20,0.00,,---,0.00,VWS V14.00,2013-08-27 14:48:00,
2013-08-27 10:49:00,83.3,38.1,29.85,NW,315,2.5,3.6,20,0.00,,---,0.00,VWS V14.00,2013-08-27 14:49:00,
2013-08-27 10:50:00,84.4,39.0,29.85,NNW,338,3.8,3.8,20,0.00,,---,0.00,VWS V14.00,2013-08-27 14:50:00,
2013-08-27 10:52:00,85.5,39.9,29.85,NW,315,2.9,6.3,20,0.00,,---,0.00,VWS V14.00,2013-08-27 14:52:00,
2013-08-27 10:53:00,85.3,39.7,29.85,North,0,3.4,3.6,20,0.00,,---,0.00,VWS V14.00,2013-08-27 14:53:00,
2013-08-27 10:55:00,84.2,38.8,29.85,NNW,338,2.5,5.6,20,0.00,,---,0.00,VWS V14.00,2013-08-27 14:55:00,
2013-08-27 10:57:00,83.8,38.5,29.85,NNW,338,2.7,4.3,20,0.00,,---,0.00,VWS V14.00,2013-08-27 14:57:00,
2013-08-27 10:58:00,84.7,39.3,29.85,NNW,338,2.9,2.9,20,0.00,,---,0.00,VWS V14.00,2013-08-27 14:58:00,
2013-08-27 11:00:00,86.4,39.3,29.85,NNW,338,2.9,4.0,19,0.00,,---,0.00,VWS V14.00,2013-08-27 15:00:00,
2013-08-27 11:02:00,85.8,40.2,29.85,NNW,338,4.7,6.5,20,0.00,,---,0.00,VWS V14.00,2013-08-27 15:02:00,
2013-08-27 11:03:00,85.8,40.2,29.85,NW,315,4.0,6.3,20,0.00,,---,0.00,VWS V14.00,2013-08-27 15:03:00,
2013-08-27 11:04:00,85.8,40.2,29.85,NNE,22,4.9,5.8,20,0.00,,---,0.00,VWS V14.00,2013-08-27 15:04:00,
2013-08-27 11:06:00,84.6,37.8,29.85,NNW,338,3.6,4.5,19,0.00,,---,0.00,VWS V14.00,2013-08-27 15:06:00,
2013-08-27 11:08:00,84.4,37.7,29.85,NE,45,2.5,6.5,19,0.00,,---,0.00,VWS V14.00,2013-08-27 15:08:00,
2013-08-27 11:12:00,83.5,38.2,29.85,NW,315,3.4,4.9,20,0.00,,---,0.00,VWS V14.00,2013-08-27 15:12:00,
2013-08-27 11:14:00,83.3,38.1,29.85,North,0,2.5,8.1,20,0.00,,---,0.00,VWS V14.00,2013-08-27 15:14:00,
2013-08-27 11:17:00,83.5,38.2,29.85,NNE,22,2.7,3.1,20,0.00,,---,0.00,VWS V14.00,2013-08-27 15:17:00,
2013-08-27 11:19:00,83.5,38.2,29.85,NNW,338,4.7,5.4,20,0.00,,---,0.00,VWS V14.00,2013-08-27 15:19:00,
2013-08-27 11:21:00,83.3,38.1,29.85,NNE,22,1.1,3.6,20,0.00,,---,0.00,VWS V14.00,2013-08-27 15:21:00,
2013-08-27 11:22:00,83.3,38.1,29.85,NW,315,1.1,2.5,20,0.00,,---,0.00,VWS V14.00,2013-08-27 15:22:00,
2013-08-27 11:24:00,83.3,38.1,29.85,North,0,3.1,3.1,20,0.00,,---,0.00,VWS V14.00,2013-08-27 15:24:00,
2013-08-27 11:25:00,83.3,38.1,29.85,NNW,338,3.4,4.3,20,0.00,,---,0.00,VWS V14.00,2013-08-27 15:25:00,
2013-08-27 11:27:00,84.7,38.0,29.85,NW,315,3.8,5.6,19,0.00,,---,0.00,VWS V14.00,2013-08-27 15:27:00,
2013-08-27 11:28:00,84.4,37.7,29.85,North,0,4.3,4.3,19,0.00,,---,0.00,VWS V14.00,2013-08-27 15:28:00,
2013-08-27 11:30:00,83.8,38.5,29.85,NW,315,0.9,5.4,20,0.00,,---,0.00,VWS V14.00,2013-08-27 15:30:00,
2013-08-27 11:32:00,83.5,38.2,29.85,NNW,338,3.6,5.4,20,0.00,,---,0.00,VWS V14.00,2013-08-27 15:32:00,
2013-08-27 11:33:00,83.5,38.2,29.85,NNE,22,4.0,4.7,20,0.00,,---,0.00,VWS V14.00,2013-08-27 15:33:00,
2013-08-27 11:34:00,83.5,38.2,29.85,NNW,338,2.2,4.0,20,0.00,,---,0.00,VWS V14.00,2013-08-27 15:34:00,
2013-08-27 11:36:00,83.5,38.2,29.85,North,0,5.8,7.6,20,0.00,,---,0.00,VWS V14.00,2013-08-27 15:36:00,
2013-08-27 11:39:00,85.5,38.5,29.85,North,0,5.8,5.8,19,0.00,,---,0.00,VWS V14.00,2013-08-27 15:39:00,
2013-08-27 11:40:00,85.5,38.5,29.85,NNW,338,3.8,5.8,19,0.00,,---,0.00,VWS V14.00,2013-08-27 15:40:00,
2013-08-27 11:41:00,85.5,38.5,29.85,NW,315,3.1,3.8,19,0.00,,---,0.00,VWS V14.00,2013-08-27 15:41:00,
2013-08-27 11:42:00,85.5,38.5,29.85,NNW,338,3.1,4.9,19,0.00,,---,0.00,VWS V14.00,2013-08-27 15:42:00,
2013-08-27 11:43:00,85.5,38.5,29.85,NNE,22,9.6,9.6,19,0.00,,---,0.00,VWS V14.00,2013-08-27 15:43:00,
2013-08-27 11:44:00,85.5,38.5,29.85,NNW,338,3.4,9.6,19,0.00,,---,0.00,VWS V14.00,2013-08-27 15:44:00,
2013-08-27 11:45:00,85.5,38.5,29.85,WNW,292,7.8,7.8,19,0.00,,---,0.00,VWS V14.00,2013-08-27 15:45:00,
2013-08-27 11:47:00,86.5,39.4,29.85,NNE,22,2.9,5.4,19,0.00,,---,0.00,VWS V14.00,2013-08-27 15:47:00,
2013-08-27 11:49:00,87.3,40.0,29.85,NNW,338,4.7,4.9,19,0.00,,---,0.00,VWS V14.00,2013-08-27 15:49:00,
2013-08-27 11:52:00,87.3,40.0,29.85,WNW,292,3.4,6.3,19,0.00,,---,0.00,VWS V14.00,2013-08-27 15:52:00,
2013-08-27 11:56:00,88.3,39.5,29.85,NW,315,2.9,8.1,18,0.00,,---,0.00,VWS V14.00,2013-08-27 15:56:00,
2013-08-27 11:57:00,88.3,39.5,29.85,North,0,3.6,5.6,18,0.00,,---,0.00,VWS V14.00,2013-08-27 15:57:00,
2013-08-27 11:58:00,88.3,39.5,29.85,NNE,22,3.8,3.8,18,0.00,,---,0.00,VWS V14.00,2013-08-27 15:58:00,
2013-08-27 12:00:00,89.1,40.1,29.85,NE,45,1.3,6.5,18,0.00,,---,0.00,VWS V14.00,2013-08-27 16:00:00,
2013-08-27 12:02:00,89.1,40.1,29.85,North,0,3.8,5.4,18,0.00,,---,0.00,VWS V14.00,2013-08-27 16:02:00,
2013-08-27 12:03:00,89.1,40.1,29.85,NNW,338,2.9,3.8,18,0.00,,---,0.00,VWS V14.00,2013-08-27 16:03:00,
2013-08-27 12:04:00,89.1,40.1,29.85,NNW,338,2.9,3.4,18,0.00,,---,0.00,VWS V14.00,2013-08-27 16:04:00,
2013-08-27 12:07:00,90.5,41.3,29.85,NW,315,3.4,5.4,18,0.00,,---,0.00,VWS V14.00,2013-08-27 16:07:00,
2013-08-27 12:08:00,90.5,41.3,29.85,North,0,2.7,4.9,18,0.00,,---,0.00,VWS V14.00,2013-08-27 16:08:00,
2013-08-27 12:11:00,91.2,41.8,29.85,ENE,68,2.7,4.9,18,0.00,,---,0.00,VWS V14.00,2013-08-27 16:11:00,
2013-08-27 12:13:00,88.2,39.4,29.85,NNE,22,2.7,6.5,18,0.00,,---,0.00,VWS V14.00,2013-08-27 16:13:00,
2013-08-27 12:14:00,88.2,39.4,29.85,NNE,22,2.5,4.0,18,0.00,,---,0.00,VWS V14.00,2013-08-27 16:14:00,
2013-08-27 12:16:00,88.2,39.4,29.82,NNW,338,2.7,3.8,18,0.00,,---,0.00,VWS V14.00,2013-08-27 16:16:00,
2013-08-27 12:19:00,88.3,39.5,29.82,NNW,338,6.0,7.4,18,0.00,,---,0.00,VWS V14.00,2013-08-27 16:19:00,
2013-08-27 12:20:00,88.3,39.5,29.82,North,0,3.4,6.0,18,0.00,,---,0.00,VWS V14.00,2013-08-27 16:20:00,
2013-08-27 12:22:00,88.3,39.5,29.82,North,0,3.1,5.6,18,0.00,,---,0.00,VWS V14.00,2013-08-27 16:22:00,
2013-08-27 12:26:00,87.3,38.6,29.82,North,0,2.7,2.7,18,0.00,,---,0.00,VWS V14.00,2013-08-27 16:26:00,
2013-08-27 12:27:00,88.5,39.7,29.82,NE,45,2.0,4.7,18,0.00,,---,0.00,VWS V14.00,2013-08-27 16:27:00,
2013-08-27 12:28:00,88.9,39.9,29.82,NNE,22,1.6,4.3,18,0.00,,---,0.00,VWS V14.00,2013-08-27 16:28:00,
2013-08-27 12:30:00,89.1,40.1,29.82,ENE,68,6.0,6.0,18,0.00,,---,0.00,VWS V14.00,2013-08-27 16:30:00,
2013-08-27 12:31:00,89.1,40.1,29.82,North,0,4.7,6.0,18,0.00,,---,0.00,VWS V14.00,2013-08-27 16:31:00,
2013-08-27 12:34:00,88.7,39.8,29.82,North,0,5.6,5.8,18,0.00,,---,0.00,VWS V14.00,2013-08-27 16:34:00,
2013-08-27 12:35:00,88.7,39.8,29.82,North,0,2.5,5.6,18,0.00,,---,0.00,VWS V14.00,2013-08-27 16:35:00,
2013-08-27 12:37:00,91.0,41.7,29.82,ENE,68,3.1,3.1,18,0.00,,---,0.00,VWS V14.00,2013-08-27 16:37:00,
2013-08-27 12:38:00,91.0,41.7,29.82,NNW,338,3.6,4.5,18,0.00,,---,0.00,VWS V14.00,2013-08-27 16:38:00,
2013-08-27 12:40:00,91.0,41.7,29.82,ENE,68,8.1,8.1,18,0.00,,---,0.00,VWS V14.00,2013-08-27 16:40:00,
2013-08-27 12:42:00,91.0,41.7,29.82,WNW,292,3.6,6.3,18,0.00,,---,0.00,VWS V14.00,2013-08-27 16:42:00,
2013-08-27 12:44:00,91.0,41.7,29.82,NNE,22,4.3,4.3,18,0.00,,---,0.00,VWS V14.00,2013-08-27 16:44:00,
2013-08-27 12:45:00,88.7,39.8,29.82,North,0,4.3,4.3,18,0.00,,---,0.00,VWS V14.00,2013-08-27 16:45:00,
2013-08-27 12:47:00,88.7,39.8,29.85,NNW,338,4.7,7.2,18,0.00,,---,0.00,VWS V14.00,2013-08-27 16:47:00,
2013-08-27 12:49:00,88.7,39.8,29.85,NE,45,5.4,8.1,18,0.00,,---,0.00,VWS V14.00,2013-08-27 16:49:00,
2013-08-27 12:53:00,87.1,38.5,29.85,NNE,22,2.5,3.1,18,0.00,,---,0.00,VWS V14.00,2013-08-27 16:53:00,
2013-08-27 12:54:00,87.1,38.5,29.85,North,0,3.6,3.6,18,0.00,,---,0.00,VWS V14.00,2013-08-27 16:54:00,
2013-08-27 12:58:00,87.1,38.5,29.85,NNE,22,4.3,4.3,18,0.00,,---,0.00,VWS V14.00,2013-08-27 16:58:00,
2013-08-27 12:59:00,87.1,38.5,29.85,NNE,22,1.3,4.3,18,0.00,,---,0.00,VWS V14.00,2013-08-27 16:59:00,
2013-08-27 13:01:00,87.1,38.5,29.85,NNE,22,4.7,6.3,18,0.00,,---,0.00,VWS V14.00,2013-08-27 17:01:00,
2013-08-27 13:02:00,87.1,38.5,29.85,NNW,338,7.2,7.2,18,0.00,,---,0.00,VWS V14.00,2013-08-27 17:02:00,
2013-08-27 13:04:00,87.1,38.5,29.85,NNE,22,3.1,3.4,18,0.00,,---,0.00,VWS V14.00,2013-08-27 17:04:00,
2013-08-27 13:06:00,87.1,38.5,29.85,ENE,68,6.3,7.6,18,0.00,,---,0.00,VWS V14.00,2013-08-27 17:06:00,
2013-08-27 13:08:00,90.1,39.5,29.85,NNE,22,3.4,5.6,17,0.00,,---,0.00,VWS V14.00,2013-08-27 17:08:00,
2013-08-27 13:09:00,90.3,39.6,29.85,WNW,292,4.7,5.8,17,0.00,,---,0.00,VWS V14.00,2013-08-27 17:09:00,
2013-08-27 13:10:00,90.3,39.6,29.85,NW,315,5.4,8.7,17,0.00,,---,0.00,VWS V14.00,2013-08-27 17:10:00,
2013-08-27 13:11:00,90.0,39.3,29.85,NNE,22,3.8,6.5,17,0.00,,---,0.00,VWS V14.00,2013-08-27 17:11:00,
2013-08-27 13:14:00,90.0,39.3,29.85,ESE,112,2.2,3.4,17,0.00,,---,0.00,VWS V14.00,2013-08-27 17:14:00,
2013-08-27 13:15:00,90.0,39.3,29.85,NE,45,5.6,5.6,17,0.00,,---,0.00,VWS V14.00,2013-08-27 17:15:00,
2013-08-27 13:16:00,90.0,39.3,29.85,NNW,338,2.5,5.6,17,0.00,,---,0.00,VWS V14.00,2013-08-27 17:16:00,
2013-08-27 13:18:00,88.7,39.8,29.85,NNE,22,1.1,5.8,18,0.00,,---,0.00,VWS V14.00,2013-08-27 17:18:00,
2013-08-27 13:20:00,88.7,39.8,29.85,North,0,5.8,5.8,18,0.00,,---,0.00,VWS V14.00,2013-08-27 17:20:00,
2013-08-27 13:21:00,88.7,39.8,29.85,WNW,292,2.7,7.4,18,0.00,,---,0.00,VWS V14.00,2013-08-27 17:21:00,
2013-08-27 13:24:00,87.3,38.6,29.85,North,0,6.3,6.3,18,0.00,,---,0.00,VWS V14.00,2013-08-27 17:24:00,
2013-08-27 13:25:00,87.3,38.6,29.85,North,0,4.3,6.3,18,0.00,,---,0.00,VWS V14.00,2013-08-27 17:25:00,
2013-08-27 13:27:00,87.4,38.8,29.85,West,270,5.4,5.4,18,0.00,,---,0.00,VWS V14.00,2013-08-27 17:27:00,
2013-08-27 13:28:00,87.8,39.1,29.85,NW,315,5.6,7.8,18,0.00,,---,0.00,VWS V14.00,2013-08-27 17:28:00,
2013-08-27 13:30:00,87.8,39.1,29.85,NW,315,5.4,8.1,18,0.00,,---,0.00,VWS V14.00,2013-08-27 17:30:00,
2013-08-27 13:34:00,87.8,39.1,29.82,North,0,1.3,4.3,18,0.00,,---,0.00,VWS V14.00,2013-08-27 17:34:00,
2013-08-27 13:36:00,87.6,38.9,29.82,NNW,338,2.7,4.3,18,0.00,,---,0.00,VWS V14.00,2013-08-27 17:36:00,
2013-08-27 13:37:00,87.6,38.9,29.82,NNW,338,4.7,4.7,18,0.00,,---,0.00,VWS V14.00,2013-08-27 17:37:00,
2013-08-27 13:38:00,87.6,38.9,29.82,NNW,338,4.0,6.3,18,0.00,,---,0.00,VWS V14.00,2013-08-27 17:38:00,
2013-08-27 13:41:00,87.6,38.9,29.82,NNW,338,6.0,6.0,18,0.00,,---,0.00,VWS V14.00,2013-08-27 17:41:00,
2013-08-27 13:42:00,88.2,39.4,29.82,North,0,3.8,6.0,18,0.00,,---,0.00,VWS V14.00,2013-08-27 17:42:00,
2013-08-27 13:45:00,88.9,39.9,29.82,ENE,68,3.1,4.3,18,0.00,,---,0.00,VWS V14.00,2013-08-27 17:45:00,
2013-08-27 13:47:00,88.9,39.9,29.85,NNE,22,2.7,5.6,18,0.00,,---,0.00,VWS V14.00,2013-08-27 17:47:00,
2013-08-27 13:50:00,88.0,39.2,29.85,NE,45,1.6,3.8,18,0.00,,---,0.00,VWS V14.00,2013-08-27 17:50:00,
2013-08-27 13:54:00,88.9,39.9,29.85,NNW,338,5.4,5.4,18,0.00,,---,0.00,VWS V14.00,2013-08-27 17:54:00,
2013-08-27 13:55:00,88.9,39.9,29.85,NNE,22,2.0,5.4,18,0.00,,---,0.00,VWS V14.00,2013-08-27 17:55:00,
2013-08-27 13:56:00,88.9,39.9,29.85,NNW,338,2.9,6.3,18,0.00,,---,0.00,VWS V14.00,2013-08-27 17:56:00,
2013-08-27 13:57:00,88.9,39.9,29.85,NNW,338,2.5,5.8,18,0.00,,---,0.00,VWS V14.00,2013-08-27 17:57:00,
2013-08-27 14:00:00,89.8,39.2,29.85,North,0,2.0,2.9,17,0.00,,---,0.00,VWS V14.00,2013-08-27 18:00:00,
2013-08-27 14:02:00,90.3,39.6,29.85,North,0,2.0,4.3,17,0.00,,---,0.00,VWS V14.00,2013-08-27 18:02:00,
2013-08-27 14:05:00,90.3,39.6,29.85,SSW,202,3.1,3.4,17,0.00,,---,0.00,VWS V14.00,2013-08-27 18:05:00,
2013-08-27 14:06:00,90.3,39.6,29.85,NNW,338,1.3,4.7,17,0.00,,---,0.00,VWS V14.00,2013-08-27 18:06:00,
2013-08-27 14:08:00,90.3,39.6,29.85,NW,315,1.6,4.0,17,0.00,,---,0.00,VWS V14.00,2013-08-27 18:08:00,
2013-08-27 14:09:00,90.3,39.6,29.85,West,270,2.5,2.5,17,0.00,,---,0.00,VWS V14.00,2013-08-27 18:09:00,
2013-08-27 14:12:00,90.3,39.6,29.85,NW,315,0.0,4.9,17,0.00,,---,0.00,VWS V14.00,2013-08-27 18:12:00,
2013-08-27 14:14:00,91.6,40.7,29.85,NE,45,2.9,4.3,17,0.00,,---,0.00,VWS V14.00,2013-08-27 18:14:00,
2013-08-27 14:15:00,91.6,40.7,29.85,NNW,338,9.0,9.0,17,0.00,,---,0.00,VWS V14.00,2013-08-27 18:15:00,
2013-08-27 14:19:00,91.2,40.4,29.82,North,0,0.0,1.6,17,0.00,,---,0.00,VWS V14.00,2013-08-27 18:19:00,
2013-08-27 14:21:00,91.2,40.4,29.82,NNW,338,2.5,4.0,17,0.00,,---,0.00,VWS V14.00,2013-08-27 18:21:00,
2013-08-27 14:22:00,91.2,40.4,29.82,North,0,1.6,4.0,17,0.00,,---,0.00,VWS V14.00,2013-08-27 18:22:00,
2013-08-27 14:24:00,91.2,40.4,29.82,NE,45,2.9,3.4,17,0.00,,---,0.00,VWS V14.00,2013-08-27 18:24:00,
2013-08-27 14:27:00,91.2,40.4,29.82,NW,315,0.0,2.0,17,0.00,,---,0.00,VWS V14.00,2013-08-27 18:27:00,
2013-08-27 14:29:00,91.2,40.4,29.82,NNW,338,4.3,4.3,17,0.00,,---,0.00,VWS V14.00,2013-08-27 18:29:00,
2013-08-27 14:32:00,91.8,40.8,29.85,NNW,338,1.3,6.5,17,0.00,,---,0.00,VWS V14.00,2013-08-27 18:32:00,
2013-08-27 14:33:00,91.8,40.8,29.85,NNW,338,6.0,6.0,17,0.00,,---,0.00,VWS V14.00,2013-08-27 18:33:00,
2013-08-27 14:37:00,92.3,41.2,29.85,North,0,3.1,5.6,17,0.00,,---,0.00,VWS V14.00,2013-08-27 18:37:00,
2013-08-27 14:38:00,92.3,41.2,29.85,NW,315,3.6,4.9,17,0.00,,---,0.00,VWS V14.00,2013-08-27 18:38:00,
2013-08-27 14:41:00,92.3,41.2,29.85,NE,45,2.2,6.0,17,0.00,,---,0.00,VWS V14.00,2013-08-27 18:41:00,
2013-08-27 14:42:00,92.3,41.2,29.85,NE,45,3.6,3.6,17,0.00,,---,0.00,VWS V14.00,2013-08-27 18:42:00,
2013-08-27 14:43:00,92.3,41.2,29.85,North,0,2.5,3.6,17,0.00,,---,0.00,VWS V14.00,2013-08-27 18:43:00,
2013-08-27 14:44:00,92.3,41.2,29.85,NNE,22,0.0,2.5,17,0.00,,---,0.00,VWS V14.00,2013-08-27 18:44:00,
2013-08-27 14:48:00,92.3,41.2,29.85,NE,45,3.6,3.8,17,0.00,,---,0.00,VWS V14.00,2013-08-27 18:48:00,
2013-08-27 14:49:00,89.2,40.2,29.85,NNE,22,3.1,3.8,18,0.00,,---,0.00,VWS V14.00,2013-08-27 18:49:00,
2013-08-27 14:53:00,88.5,39.7,29.85,North,0,1.3,2.5,18,0.00,,---,0.00,VWS V14.00,2013-08-27 18:53:00,
2013-08-27 14:55:00,88.5,39.7,29.85,North,0,2.9,2.9,18,0.00,,---,0.00,VWS V14.00,2013-08-27 18:55:00,
2013-08-27 14:56:00,90.1,39.5,29.85,NNW,338,3.6,5.4,17,0.00,,---,0.00,VWS V14.00,2013-08-27 18:56:00,
2013-08-27 14:59:00,90.5,39.8,29.85,NNW,338,5.4,8.7,17,0.00,,---,0.00,VWS V14.00,2013-08-27 18:59:00,
2013-08-27 15:00:00,90.5,39.8,29.85,NNW,338,1.6,5.4,17,0.00,,---,0.00,VWS V14.00,2013-08-27 19:00:00,
2013-08-27 15:01:00,90.5,39.8,29.85,NE,45,2.9,3.8,17,0.00,,---,0.00,VWS V14.00,2013-08-27 19:01:00,
2013-08-27 15:02:00,90.5,39.8,29.85,NNE,22,2.0,2.9,17,0.00,,---,0.00,VWS V14.00,2013-08-27 19:02:00,
2013-08-27 15:03:00,90.5,39.8,29.85,North,0,3.4,4.7,17,0.00,,---,0.00,VWS V14.00,2013-08-27 19:03:00,
2013-08-27 15:06:00,91.6,40.7,29.85,North,0,6.5,6.5,17,0.00,,---,0.00,VWS V14.00,2013-08-27 19:06:00,
2013-08-27 15:08:00,91.6,40.7,29.85,NNW,338,3.6,4.9,17,0.00,,---,0.00,VWS V14.00,2013-08-27 19:08:00,
2013-08-27 15:12:00,91.6,40.7,29.85,NNE,22,2.0,3.1,17,0.00,,---,0.00,VWS V14.00,2013-08-27 19:12:00,
2013-08-27 15:14:00,91.6,40.7,29.85,NE,45,4.7,4.7,17,0.00,,---,0.00,VWS V14.00,2013-08-27 19:14:00,
2013-08-27 15:15:00,91.6,40.7,29.85,NNW,338,2.5,4.7,17,0.00,,---,0.00,VWS V14.00,2013-08-27 19:15:00,
2013-08-27 15:17:00,92.7,41.5,29.85,NNE,22,4.0,4.0,17,0.00,,---,0.00,VWS V14.00,2013-08-27 19:17:00,
2013-08-27 15:21:00,92.7,41.5,29.85,NW,315,3.8,9.8,17,0.00,,---,0.00,VWS V14.00,2013-08-27 19:21:00,
2013-08-27 15:22:00,92.3,41.2,29.85,WNW,292,1.6,5.4,17,0.00,,---,0.00,VWS V14.00,2013-08-27 19:22:00,
2013-08-27 15:23:00,92.3,41.2,29.85,NNW,338,3.1,3.4,17,0.00,,---,0.00,VWS V14.00,2013-08-27 19:23:00,
2013-08-27 15:24:00,92.3,41.2,29.85,NNE,22,2.0,4.3,17,0.00,,---,0.00,VWS V14.00,2013-08-27 19:24:00,
2013-08-27 15:28:00,92.3,41.2,29.85,NE,45,1.6,3.1,17,0.00,,---,0.00,VWS V14.00,2013-08-27 19:28:00,
2013-08-27 15:29:00,92.3,41.2,29.85,NNW,338,6.3,6.3,17,0.00,,---,0.00,VWS V14.00,2013-08-27 19:29:00,
2013-08-27 15:34:00,93.0,41.8,29.82,North,0,0.0,2.9,17,0.00,,---,0.00,VWS V14.00,2013-08-27 19:34:00,
2013-08-27 15:35:00,93.0,41.8,29.82,NNE,22,1.3,1.3,17,0.00,,---,0.00,VWS V14.00,2013-08-27 19:35:00,
2013-08-27 15:36:00,93.0,41.8,29.82,NNW,338,4.5,4.5,17,0.00,,---,0.00,VWS V14.00,2013-08-27 19:36:00,
2013-08-27 15:39:00,93.4,40.5,29.82,NNW,338,2.9,3.6,16,0.00,,---,0.00,VWS V14.00,2013-08-27 19:39:00,
2013-08-27 15:41:00,93.4,40.5,29.82,NE,45,4.3,6.3,16,0.00,,---,0.00,VWS V14.00,2013-08-27 19:41:00,
2013-08-27 15:42:00,93.4,40.5,29.82,NE,45,2.9,4.3,16,0.00,,---,0.00,VWS V14.00,2013-08-27 19:42:00,
2013-08-27 15:43:00,93.4,40.5,29.82,North,0,2.5,4.9,16,0.00,,---,0.00,VWS V14.00,2013-08-27 19:43:00,
2013-08-27 15:46:00,92.8,36.7,29.82,NNE,22,1.6,4.7,14,0.00,,---,0.00,VWS V14.00,2013-08-27 19:46:00,
2013-08-27 15:48:00,92.7,36.5,29.82,NNE,22,2.0,3.6,14,0.00,,---,0.00,VWS V14.00,2013-08-27 19:48:00,
2013-08-27 15:49:00,92.8,36.7,29.82,NE,45,0.9,2.0,14,0.00,,---,0.00,VWS V14.00,2013-08-27 19:49:00,
2013-08-27 15:52:00,92.8,36.7,29.82,North,0,1.3,2.2,14,0.00,,---,0.00,VWS V14.00,2013-08-27 19:52:00,
2013-08-27 15:53:00,92.8,36.7,29.82,North,0,2.9,4.3,14,0.00,,---,0.00,VWS V14.00,2013-08-27 19:53:00,
2013-08-27 15:54:00,93.7,37.4,29.82,NNW,338,1.1,2.9,14,0.00,,---,0.00,VWS V14.00,2013-08-27 19:54:00,
2013-08-27 15:55:00,93.7,37.4,29.82,NE,45,1.6,2.5,14,0.00,,---,0.00,VWS V14.00,2013-08-27 19:55:00,
2013-08-27 15:57:00,93.7,37.4,29.82,NNE,22,1.6,2.7,14,0.00,,---,0.00,VWS V14.00,2013-08-27 19:57:00,
2013-08-27 15:59:00,93.7,37.4,29.82,NNE,22,2.7,6.5,14,0.00,,---,0.00,VWS V14.00,2013-08-27 19:59:00,
2013-08-27 16:02:00,93.7,37.4,29.82,ENE,68,1.3,3.6,14,0.00,,---,0.00,VWS V14.00,2013-08-27 20:02:00,
2013-08-27 16:04:00,93.4,37.1,29.82,NNE,22,0.0,3.1,14,0.00,,---,0.00,VWS V14.00,2013-08-27 20:04:00,
2013-08-27 16:05:00,93.2,37.0,29.82,NNW,338,5.6,5.6,14,0.00,,---,0.00,VWS V14.00,2013-08-27 20:05:00,
2013-08-27 16:07:00,93.2,37.0,29.82,North,0,4.7,5.6,14,0.00,,---,0.00,VWS V14.00,2013-08-27 20:07:00,
2013-08-27 16:09:00,93.2,37.0,29.82,NNW,338,2.7,2.7,14,0.00,,---,0.00,VWS V14.00,2013-08-27 20:09:00,
2013-08-27 16:10:00,93.2,37.0,29.82,WNW,292,2.0,2.9,14,0.00,,---,0.00,VWS V14.00,2013-08-27 20:10:00,
2013-08-27 16:11:00,93.2,37.0,29.82,WSW,248,2.7,2.7,14,0.00,,---,0.00,VWS V14.00,2013-08-27 20:11:00,
2013-08-27 16:13:00,93.2,37.0,29.82,NNE,22,3.6,6.3,14,0.00,,---,0.00,VWS V14.00,2013-08-27 20:13:00,
2013-08-27 16:14:00,93.2,37.0,29.82,NE,45,3.6,3.6,14,0.00,,---,0.00,VWS V14.00,2013-08-27 20:14:00,
2013-08-27 16:16:00,93.2,37.0,29.82,NE,45,2.5,2.9,14,0.00,,---,0.00,VWS V14.00,2013-08-27 20:16:00,
2013-08-27 16:18:00,92.8,36.7,29.82,North,0,2.7,4.0,14,0.00,,---,0.00,VWS V14.00,2013-08-27 20:18:00,
2013-08-27 16:20:00,93.2,37.0,29.82,WNW,292,0.9,2.9,14,0.00,,---,0.00,VWS V14.00,2013-08-27 20:20:00,
2013-08-27 16:22:00,93.2,37.0,29.82,NNE,22,2.7,4.3,14,0.00,,---,0.00,VWS V14.00,2013-08-27 20:22:00,
2013-08-27 16:23:00,93.2,37.0,29.82,NNW,338,4.9,4.9,14,0.00,,---,0.00,VWS V14.00,2013-08-27 20:23:00,
2013-08-27 16:24:00,93.2,37.0,29.82,North,0,1.3,4.9,14,0.00,,---,0.00,VWS V14.00,2013-08-27 20:24:00,
2013-08-27 16:28:00,93.2,37.0,29.82,NW,315,0.0,3.6,14,0.00,,---,0.00,VWS V14.00,2013-08-27 20:28:00,
2013-08-27 16:29:00,93.2,37.0,29.82,NE,45,0.0,0.0,14,0.00,,---,0.00,VWS V14.00,2013-08-27 20:29:00,
2013-08-27 16:30:00,93.2,37.0,29.82,NW,315,4.7,4.7,14,0.00,,---,0.00,VWS V14.00,2013-08-27 20:30:00,
2013-08-27 16:31:00,93.2,37.0,29.82,North,0,3.1,4.7,14,0.00,,---,0.00,VWS V14.00,2013-08-27 20:31:00,
2013-08-27 16:36:00,93.2,37.0,29.82,NNE,22,2.7,5.4,14,0.00,,---,0.00,VWS V14.00,2013-08-27 20:36:00,
2013-08-27 16:37:00,93.2,37.0,29.82,NNW,338,2.9,5.8,14,0.00,,---,0.00,VWS V14.00,2013-08-27 20:37:00,
2013-08-27 16:38:00,93.2,37.0,29.82,NNW,338,3.4,4.7,14,0.00,,---,0.00,VWS V14.00,2013-08-27 20:38:00,
2013-08-27 16:39:00,93.2,37.0,29.82,NNE,22,2.0,3.8,14,0.00,,---,0.00,VWS V14.00,2013-08-27 20:39:00,
2013-08-27 16:43:00,92.8,36.7,29.82,North,0,2.7,3.6,14,0.00,,---,0.00,VWS V14.00,2013-08-27 20:43:00,
2013-08-27 16:44:00,92.8,36.7,29.82,NW,315,2.5,3.4,14,0.00,,---,0.00,VWS V14.00,2013-08-27 20:44:00,
2013-08-27 16:47:00,92.8,36.7,29.82,North,0,2.7,4.9,14,0.00,,---,0.00,VWS V14.00,2013-08-27 20:47:00,
2013-08-27 16:48:00,92.8,36.7,29.82,NNW,338,2.9,3.4,14,0.00,,---,0.00,VWS V14.00,2013-08-27 20:48:00,
2013-08-27 16:49:00,92.8,36.7,29.82,NW,315,1.6,2.9,14,0.00,,---,0.00,VWS V14.00,2013-08-27 20:49:00,
2013-08-27 16:51:00,93.0,36.8,29.82,NNW,338,1.3,2.5,14,0.00,,---,0.00,VWS V14.00,2013-08-27 20:51:00,
2013-08-27 16:53:00,93.0,36.8,29.82,NNW,338,0.9,2.7,14,0.00,,---,0.00,VWS V14.00,2013-08-27 20:53:00,
2013-08-27 16:56:00,93.0,36.8,29.82,NNE,22,3.6,4.9,14,0.00,,---,0.00,VWS V14.00,2013-08-27 20:56:00,
2013-08-27 16:57:00,93.0,36.8,29.82,North,0,3.6,7.2,14,0.00,,---,0.00,VWS V14.00,2013-08-27 20:57:00,
2013-08-27 16:59:00,92.3,36.3,29.82,NNE,22,2.0,5.4,14,0.00,,---,0.00,VWS V14.00,2013-08-27 20:59:00,
2013-08-27 17:00:00,91.9,36.0,29.82,NNE,22,2.2,2.5,14,0.00,,---,0.00,VWS V14.00,2013-08-27 21:00:00,
2013-08-27 17:05:00,91.9,36.0,29.82,NE,45,5.8,6.5,14,0.00,,---,0.00,VWS V14.00,2013-08-27 21:05:00,
2013-08-27 17:06:00,91.9,36.0,29.82,NW,315,3.4,5.8,14,0.00,,---,0.00,VWS V14.00,2013-08-27 21:06:00,
2013-08-27 17:07:00,91.9,36.0,29.82,NE,45,3.4,6.0,14,0.00,,---,0.00,VWS V14.00,2013-08-27 21:07:00,
2013-08-27 17:12:00,91.9,36.0,29.82,NNW,338,4.0,5.4,14,0.00,,---,0.00,VWS V14.00,2013-08-27 21:12:00,
2013-08-27 17:13:00,91.9,36.0,29.82,NNE,22,0.0,5.4,14,0.00,,---,0.00,VWS V14.00,2013-08-27 21:13:00,
2013-08-27 17:15:00,91.9,36.0,29.82,NNE,22,2.0,2.7,14,0.00,,---,0.00,VWS V14.00,2013-08-27 21:15:00,
2013-08-27 17:16:00,91.9,36.0,29.82,North,0,0.0,2.5,14,0.00,,---,0.00,VWS V14.00,2013-08-27 21:16:00,
2013-08-27 17:17:00,91.9,36.0,29.85,North,0,3.6,3.6,14,0.00,,---,0.00,VWS V14.00,2013-08-27 21:17:00,
2013-08-27 17:19:00,91.9,36.0,29.85,North,0,1.6,2.7,14,0.00,,---,0.00,VWS V14.00,2013-08-27 21:19:00,
2013-08-27 17:22:00,91.2,37.2,29.85,NNE,22,0.0,2.5,15,0.00,,---,0.00,VWS V14.00,2013-08-27 21:22:00,
2013-08-27 17:23:00,91.2,37.2,29.85,NE,45,2.5,4.3,15,0.00,,---,0.00,VWS V14.00,2013-08-27 21:23:00,
2013-08-27 17:24:00,91.2,37.2,29.85,North,0,2.0,2.5,15,0.00,,---,0.00,VWS V14.00,2013-08-27 21:24:00,
2013-08-27 17:25:00,90.7,36.7,29.85,NNE,22,3.6,7.4,15,0.00,,---,0.00,VWS V14.00,2013-08-27 21:25:00,
2013-08-27 17:28:00,90.7,36.7,29.85,NNE,22,1.3,2.0,15,0.00,,---,0.00,VWS V14.00,2013-08-27 21:28:00,
2013-08-27 17:30:00,90.7,36.7,29.85,NNW,338,4.9,4.9,15,0.00,,---,0.00,VWS V14.00,2013-08-27 21:30:00,
2013-08-27 17:35:00,90.7,36.7,29.85,NNE,22,2.0,4.0,15,0.00,,---,0.00,VWS V14.00,2013-08-27 21:35:00,
2013-08-27 17:38:00,90.7,36.7,29.85,NNW,338,3.1,4.9,15,0.00,,---,0.00,VWS V14.00,2013-08-27 21:38:00,
2013-08-27 17:40:00,90.7,36.7,29.85,NNW,338,2.5,2.5,15,0.00,,---,0.00,VWS V14.00,2013-08-27 21:40:00,
2013-08-27 17:43:00,90.7,36.7,29.85,East,90,0.0,1.3,15,0.00,,---,0.00,VWS V14.00,2013-08-27 21:43:00,
2013-08-27 17:45:00,90.7,36.7,29.85,NNW,338,1.6,1.6,15,0.00,,---,0.00,VWS V14.00,2013-08-27 21:45:00,
2013-08-27 17:49:00,90.7,36.7,29.85,NW,315,0.0,1.6,15,0.00,,---,0.00,VWS V14.00,2013-08-27 21:49:00,
2013-08-27 17:50:00,90.7,36.7,29.85,WSW,248,0.0,0.0,15,0.00,,---,0.00,VWS V14.00,2013-08-27 21:50:00,
2013-08-27 17:51:00,90.7,36.7,29.85,West,270,2.9,4.9,15,0.00,,---,0.00,VWS V14.00,2013-08-27 21:51:00,
2013-08-27 17:56:00,90.7,36.7,29.85,West,270,1.3,2.0,15,0.00,,---,0.00,VWS V14.00,2013-08-27 21:56:00,
2013-08-27 17:57:00,90.7,36.7,29.85,NW,315,2.7,2.7,15,0.00,,---,0.00,VWS V14.00,2013-08-27 21:57:00,
2013-08-27 18:00:00,90.7,36.7,29.85,NW,315,1.3,2.9,15,0.00,,---,0.00,VWS V14.00,2013-08-27 22:00:00,
2013-08-27 18:01:00,90.7,36.7,29.85,NW,315,0.0,1.3,15,0.00,,---,0.00,VWS V14.00,2013-08-27 22:01:00,
2013-08-27 18:02:00,90.7,36.7,29.85,NNW,338,0.0,2.9,15,0.00,,---,0.00,VWS V14.00,2013-08-27 22:02:00,
2013-08-27 18:06:00,90.7,36.7,29.85,NW,315,2.9,4.7,15,0.00,,---,0.00,VWS V14.00,2013-08-27 22:06:00,
2013-08-27 18:11:00,90.7,36.7,29.85,WNW,292,0.0,2.7,15,0.00,,---,0.00,VWS V14.00,2013-08-27 22:11:00,
2013-08-27 18:12:00,90.7,36.7,29.85,NW,315,0.0,2.9,15,0.00,,---,0.00,VWS V14.00,2013-08-27 22:12:00,
2013-08-27 18:14:00,87.6,35.9,29.85,NNW,338,0.0,2.7,16,0.00,,---,0.00,VWS V14.00,2013-08-27 22:14:00,
2013-08-27 18:15:00,87.6,35.9,29.85,North,0,0.0,0.9,16,0.00,,---,0.00,VWS V14.00,2013-08-27 22:15:00,
2013-08-27 18:16:00,87.6,35.9,29.85,North,0,0.0,0.0,16,0.00,,---,0.00,VWS V14.00,2013-08-27 22:16:00,
2013-08-27 18:19:00,87.6,35.9,29.85,North,0,1.3,1.3,16,0.00,,---,0.00,VWS V14.00,2013-08-27 22:19:00,
2013-08-27 18:21:00,87.4,35.8,29.85,NW,315,0.9,2.0,16,0.00,,---,0.00,VWS V14.00,2013-08-27 22:21:00,
2013-08-27 18:24:00,87.6,35.9,29.85,NW,315,0.0,0.0,16,0.00,,---,0.00,VWS V14.00,2013-08-27 22:24:00,
2013-08-27 18:25:00,87.6,35.9,29.85,NW,315,0.0,0.0,16,0.00,,---,0.00,VWS V14.00,2013-08-27 22:25:00,
2013-08-27 18:26:00,87.6,35.9,29.85,NW,315,0.0,0.0,16,0.00,,---,0.00,VWS V14.00,2013-08-27 22:26:00,
2013-08-27 18:27:00,87.6,35.9,29.85,NE,45,0.0,0.0,16,0.00,,---,0.00,VWS V14.00,2013-08-27 22:27:00,
2013-08-27 18:32:00,87.3,35.6,29.85,NNE,22,0.0,0.0,16,0.00,,---,0.00,VWS V14.00,2013-08-27 22:32:00,
2013-08-27 18:33:00,87.3,35.6,29.85,NW,315,0.0,0.0,16,0.00,,---,0.00,VWS V14.00,2013-08-27 22:33:00,
2013-08-27 18:37:00,87.1,35.5,29.85,WNW,292,0.0,0.0,16,0.00,,---,0.00,VWS V14.00,2013-08-27 22:37:00,
2013-08-27 18:40:00,86.7,35.2,29.85,ENE,68,0.0,0.0,16,0.00,,---,0.00,VWS V14.00,2013-08-27 22:40:00,
2013-08-27 18:41:00,86.5,38.0,29.85,ESE,112,4.3,4.3,18,0.00,,---,0.00,VWS V14.00,2013-08-27 22:41:00,
2013-08-27 18:42:00,85.8,37.5,29.85,ESE,112,3.4,4.9,18,0.00,,---,0.00,VWS V14.00,2013-08-27 22:42:00,
2013-08-27 18:46:00,84.4,36.3,29.85,ESE,112,3.1,3.6,18,0.00,,---,0.00,VWS V14.00,2013-08-27 22:46:00,
2013-08-27 18:47:00,83.7,37.1,29.85,ESE,112,4.0,4.9,19,0.00,,---,0.00,VWS V14.00,2013-08-27 22:47:00,
2013-08-27 18:49:00,83.5,36.9,29.85,SE,135,3.4,3.6,19,0.00,,---,0.00,VWS V14.00,2013-08-27 22:49:00,
2013-08-27 18:52:00,83.1,36.6,29.85,ESE,112,2.9,3.1,19,0.00,,---,0.00,VWS V14.00,2013-08-27 22:52:00,
2013-08-27 18:53:00,83.1,36.6,29.85,ESE,112,2.9,2.9,19,0.00,,---,0.00,VWS V14.00,2013-08-27 22:53:00,
2013-08-27 18:54:00,82.9,36.5,29.85,ESE,112,3.4,4.0,19,0.00,,---,0.00,VWS V14.00,2013-08-27 22:54:00,
2013-08-27 18:57:00,82.8,36.3,29.85,ESE,112,0.0,0.0,19,0.00,,---,0.00,VWS V14.00,2013-08-27 22:57:00,
2013-08-27 19:00:00,82.9,36.5,29.85,ESE,112,0.0,0.0,19,0.00,,---,0.00,VWS V14.00,2013-08-27 23:00:00,
2013-08-27 19:03:00,82.8,36.3,29.85,ESE,112,0.0,0.0,19,0.00,,---,0.00,VWS V14.00,2013-08-27 23:03:00,
2013-08-27 19:04:00,82.9,36.5,29.85,ESE,112,0.0,0.0,19,0.00,,---,0.00,VWS V14.00,2013-08-27 23:04:00,
2013-08-27 19:05:00,82.8,36.3,29.85,ESE,112,0.0,0.0,19,0.00,,---,0.00,VWS V14.00,2013-08-27 23:05:00,
2013-08-27 19:09:00,82.4,36.0,29.85,SE,135,0.0,0.0,19,0.00,,---,0.00,VWS V14.00,2013-08-27 23:09:00,
2013-08-27 19:10:00,82.2,37.2,29.85,SE,135,0.0,0.0,20,0.00,,---,0.00,VWS V14.00,2013-08-27 23:10:00,
2013-08-27 19:13:00,82.2,37.2,29.85,SE,135,0.0,0.0,20,0.00,,---,0.00,VWS V14.00,2013-08-27 23:13:00,
2013-08-27 19:15:00,82.0,37.0,29.85,SE,135,0.0,0.0,20,0.00,,---,0.00,VWS V14.00,2013-08-27 23:15:00,
2013-08-27 19:18:00,81.9,36.9,29.85,West,270,0.0,0.0,20,0.00,,---,0.00,VWS V14.00,2013-08-27 23:18:00,
2013-08-27 19:19:00,81.9,36.9,29.85,West,270,0.0,0.0,20,0.00,,---,0.00,VWS V14.00,2013-08-27 23:19:00,
2013-08-27 19:21:00,81.7,36.8,29.85,SSW,202,2.0,2.0,20,0.00,,---,0.00,VWS V14.00,2013-08-27 23:21:00,
2013-08-27 19:24:00,81.5,36.6,29.85,WSW,248,0.9,0.9,20,0.00,,---,0.00,VWS V14.00,2013-08-27 23:24:00,
2013-08-27 19:25:00,81.3,36.5,29.85,WSW,248,0.0,1.3,20,0.00,,---,0.00,VWS V14.00,2013-08-27 23:25:00,
2013-08-27 19:28:00,81.1,36.3,29.85,SSW,202,0.0,0.0,20,0.00,,---,0.00,VWS V14.00,2013-08-27 23:28:00,
2013-08-27 19:30:00,81.0,36.2,29.85,West,270,0.0,0.0,20,0.00,,---,0.00,VWS V14.00,2013-08-27 23:30:00,
2013-08-27 19:31:00,81.0,36.2,29.85,SW,225,0.0,0.0,20,0.00,,---,0.00,VWS V14.00,2013-08-27 23:31:00,
2013-08-27 19:32:00,80.8,36.0,29.85,WSW,248,0.0,0.0,20,0.00,,---,0.00,VWS V14.00,2013-08-27 23:32:00,
2013-08-27 19:35:00,80.6,35.9,29.85,SSW,202,3.4,3.4,20,0.00,,---,0.00,VWS V14.00,2013-08-27 23:35:00,
2013-08-27 19:36:00,80.6,35.9,29.85,SSW,202,0.0,3.4,20,0.00,,---,0.00,VWS V14.00,2013-08-27 23:36:00,
2013-08-27 19:41:00,80.4,37.0,29.85,SSW,202,0.0,1.6,21,0.00,,---,0.00,VWS V14.00,2013-08-27 23:41:00,
2013-08-27 19:42:00,80.2,36.8,29.85,SSW,202,0.0,0.0,21,0.00,,---,0.00,VWS V14.00,2013-08-27 23:42:00,
2013-08-27 19:43:00,80.2,36.8,29.85,SSW,202,0.0,0.0,21,0.00,,---,0.00,VWS V14.00,2013-08-27 23:43:00,
2013-08-27 19:47:00,80.1,36.7,29.85,SSW,202,0.0,1.1,21,0.00,,---,0.00,VWS V14.00,2013-08-27 23:47:00,
2013-08-27 19:48:00,80.1,36.7,29.85,SSW,202,0.0,1.6,21,0.00,,---,0.00,VWS V14.00,2013-08-27 23:48:00,
2013-08-27 19:49:00,80.1,36.7,29.85,SSW,202,0.0,0.0,21,0.00,,---,0.00,VWS V14.00,2013-08-27 23:49:00,
2013-08-27 19:52:00,79.9,36.5,29.85,SSW,202,1.1,2.0,21,0.00,,---,0.00,VWS V14.00,2013-08-27 23:52:00,
2013-08-27 19:53:00,79.9,36.5,29.85,SSW,202,0.0,1.1,21,0.00,,---,0.00,VWS V14.00,2013-08-27 23:53:00,
2013-08-27 19:55:00,79.7,36.3,29.85,SSW,202,0.0,0.0,21,0.00,,---,0.00,VWS V14.00,2013-08-27 23:55:00,
2013-08-27 19:58:00,79.7,36.3,29.85,SSW,202,0.0,1.1,21,0.00,,---,0.00,VWS V14.00,2013-08-27 23:58:00,
2013-08-27 19:59:00,79.5,36.2,29.85,SSW,202,0.0,0.0,21,0.00,,---,0.00,VWS V14.00,2013-08-27 23:59:00,
2013-08-27 20:03:00,79.5,36.2,29.85,SSW,202,0.0,1.1,21,0.00,,---,0.00,VWS V14.00,2013-08-28 00:03:00,
2013-08-27 20:04:00,79.5,36.2,29.85,SSW,202,0.0,0.0,21,0.00,,---,0.00,VWS V14.00,2013-08-28 00:04:00,
2013-08-27 20:06:00,79.5,36.2,29.85,SSW,202,0.0,0.0,21,0.00,,---,0.00,VWS V14.00,2013-08-28 00:06:00,
2013-08-27 20:09:00,79.2,35.9,29.85,SSW,202,0.0,0.9,21,0.00,,---,0.00,VWS V14.00,2013-08-28 00:09:00,
2013-08-27 20:10:00,79.0,36.9,29.85,SSW,202,0.0,0.0,22,0.00,,---,0.00,VWS V14.00,2013-08-28 00:10:00,
2013-08-27 20:11:00,79.0,36.9,29.85,SSW,202,0.0,0.0,22,0.00,,---,0.00,VWS V14.00,2013-08-28 00:11:00,
2013-08-27 20:12:00,79.0,36.9,29.85,SSW,202,0.0,0.0,22,0.00,,---,0.00,VWS V14.00,2013-08-28 00:12:00,
2013-08-27 20:15:00,78.8,36.8,29.85,SSW,202,0.0,0.0,22,0.00,,---,0.00,VWS V14.00,2013-08-28 00:15:00,
2013-08-27 20:18:00,78.8,36.8,29.85,SSW,202,0.0,0.0,22,0.00,,---,0.00,VWS V14.00,2013-08-28 00:18:00,
2013-08-27 20:19:00,78.8,36.8,29.85,SSW,202,0.0,0.0,22,0.00,,---,0.00,VWS V14.00,2013-08-28 00:19:00,
2013-08-27 20:23:00,78.6,37.8,29.85,SSW,202,0.0,0.0,23,0.00,,---,0.00,VWS V14.00,2013-08-28 00:23:00,
2013-08-27 20:24:00,78.6,37.8,29.85,SSW,202,0.0,0.0,23,0.00,,---,0.00,VWS V14.00,2013-08-28 00:24:00,
2013-08-27 20:27:00,78.6,37.8,29.85,SSW,202,0.0,0.0,23,0.00,,---,0.00,VWS V14.00,2013-08-28 00:27:00,
2013-08-27 20:28:00,78.6,37.8,29.85,SSW,202,0.0,0.0,23,0.00,,---,0.00,VWS V14.00,2013-08-28 00:28:00,
2013-08-27 20:30:00,78.6,37.8,29.85,SSW,202,0.0,0.0,23,0.00,,---,0.00,VWS V14.00,2013-08-28 00:30:00,
2013-08-27 20:31:00,78.4,38.7,29.85,SSW,202,0.0,0.0,24,0.00,,---,0.00,VWS V14.00,2013-08-28 00:31:00,
2013-08-27 20:33:00,78.4,38.7,29.85,SSW,202,0.0,0.0,24,0.00,,---,0.00,VWS V14.00,2013-08-28 00:33:00,
2013-08-27 20:34:00,78.4,38.7,29.85,SSW,202,0.0,0.0,24,0.00,,---,0.00,VWS V14.00,2013-08-28 00:34:00,
2013-08-27 20:38:00,78.4,38.7,29.85,SSW,202,0.0,0.0,24,0.00,,---,0.00,VWS V14.00,2013-08-28 00:38:00,
2013-08-27 20:39:00,78.4,38.7,29.85,SSW,202,0.0,0.0,24,0.00,,---,0.00,VWS V14.00,2013-08-28 00:39:00,
2013-08-27 20:41:00,78.4,38.7,29.85,SSW,202,0.0,0.0,24,0.00,,---,0.00,VWS V14.00,2013-08-28 00:41:00,
2013-08-27 20:43:00,78.4,38.7,29.85,SSW,202,0.0,0.0,24,0.00,,---,0.00,VWS V14.00,2013-08-28 00:43:00,
2013-08-27 20:45:00,78.4,38.7,29.85,SSW,202,0.0,0.0,24,0.00,,---,0.00,VWS V14.00,2013-08-28 00:45:00,
2013-08-27 20:48:00,78.4,38.7,29.85,SSW,202,0.0,0.0,24,0.00,,---,0.00,VWS V14.00,2013-08-28 00:48:00,
2013-08-27 20:50:00,78.4,38.7,29.85,SSW,202,0.0,0.0,24,0.00,,---,0.00,VWS V14.00,2013-08-28 00:50:00,
2013-08-27 20:52:00,77.9,39.3,29.85,SSW,202,0.0,0.0,25,0.00,,---,0.00,VWS V14.00,2013-08-28 00:52:00,
2013-08-27 20:53:00,77.9,39.3,29.85,SSW,202,0.0,0.0,25,0.00,,---,0.00,VWS V14.00,2013-08-28 00:53:00,
2013-08-27 20:55:00,77.9,39.3,29.85,SSW,202,0.0,0.0,25,0.00,,---,0.00,VWS V14.00,2013-08-28 00:55:00,
2013-08-27 20:58:00,77.9,40.3,29.85,SSW,202,0.0,0.0,26,0.00,,---,0.00,VWS V14.00,2013-08-28 00:58:00,
2013-08-27 20:59:00,77.9,40.3,29.85,SSW,202,0.0,0.0,26,0.00,,---,0.00,VWS V14.00,2013-08-28 00:59:00,
2013-08-27 21:00:00,77.7,40.1,29.85,SSW,202,0.0,0.0,26,0.00,,---,0.00,VWS V14.00,2013-08-28 01:00:00,
2013-08-27 21:02:00,77.7,40.1,29.85,SSW,202,0.0,0.0,26,0.00,,---,0.00,VWS V14.00,2013-08-28 01:02:00,
2013-08-27 21:04:00,77.7,40.1,29.85,SSW,202,0.0,0.0,26,0.00,,---,0.00,VWS V14.00,2013-08-28 01:04:00,
2013-08-27 21:05:00,77.7,40.1,29.85,SSW,202,0.0,0.0,26,0.00,,---,0.00,VWS V14.00,2013-08-28 01:05:00,
2013-08-27 21:06:00,77.7,40.1,29.85,SSW,202,0.0,0.0,26,0.00,,---,0.00,VWS V14.00,2013-08-28 01:06:00,
2013-08-27 21:09:00,77.5,40.0,29.85,SSW,202,0.0,0.0,26,0.00,,---,0.00,VWS V14.00,2013-08-28 01:09:00,
2013-08-27 21:10:00,77.5,40.0,29.85,SSW,202,0.0,0.0,26,0.00,,---,0.00,VWS V14.00,2013-08-28 01:10:00,
2013-08-27 21:11:00,77.5,40.0,29.85,SSW,202,0.0,0.0,26,0.00,,---,0.00,VWS V14.00,2013-08-28 01:11:00,
2013-08-27 21:14:00,77.5,40.0,29.85,SSW,202,0.0,0.0,26,0.00,,---,0.00,VWS V14.00,2013-08-28 01:14:00,
2013-08-27 21:16:00,77.4,39.8,29.85,SW,225,0.9,2.2,26,0.00,,---,0.00,VWS V14.00,2013-08-28 01:16:00,
2013-08-27 21:19:00,77.4,39.8,29.88,SSW,202,0.0,0.9,26,0.00,,---,0.00,VWS V14.00,2013-08-28 01:19:00,
2013-08-27 21:20:00,77.4,39.8,29.88,SSW,202,0.0,0.0,26,0.00,,---,0.00,VWS V14.00,2013-08-28 01:20:00,
2013-08-27 21:21:00,77.4,39.8,29.88,SSW,202,0.0,0.0,26,0.00,,---,0.00,VWS V14.00,2013-08-28 01:21:00,
2013-08-27 21:26:00,77.2,39.7,29.88,SSW,202,0.0,1.1,26,0.00,,---,0.00,VWS V14.00,2013-08-28 01:26:00,
2013-08-27 21:27:00,77.2,39.7,29.88,SSW,202,0.0,0.0,26,0.00,,---,0.00,VWS V14.00,2013-08-28 01:27:00,
2013-08-27 21:31:00,77.2,40.7,29.85,SSW,202,0.0,0.0,27,0.00,,---,0.00,VWS V14.00,2013-08-28 01:31:00,
2013-08-27 21:34:00,77.2,40.7,29.85,SSW,202,0.0,0.0,27,0.00,,---,0.00,VWS V14.00,2013-08-28 01:34:00,
2013-08-27 21:36:00,77.0,40.5,29.85,SSW,202,0.0,0.0,27,0.00,,---,0.00,VWS V14.00,2013-08-28 01:36:00,
2013-08-27 21:37:00,77.0,40.5,29.85,SW,225,0.0,0.0,27,0.00,,---,0.00,VWS V14.00,2013-08-28 01:37:00,
2013-08-27 21:40:00,77.0,40.5,29.85,SW,225,0.9,0.9,27,0.00,,---,0.00,VWS V14.00,2013-08-28 01:40:00,
2013-08-27 21:43:00,76.8,41.3,29.85,SW,225,0.0,0.0,28,0.00,,---,0.00,VWS V14.00,2013-08-28 01:43:00,
2013-08-27 21:44:00,76.8,41.3,29.85,SW,225,0.0,0.0,28,0.00,,---,0.00,VWS V14.00,2013-08-28 01:44:00,
2013-08-27 21:45:00,76.8,41.3,29.85,SW,225,0.0,0.0,28,0.00,,---,0.00,VWS V14.00,2013-08-28 01:45:00,
2013-08-27 21:49:00,76.8,41.3,29.88,SW,225,0.0,0.0,28,0.00,,---,0.00,VWS V14.00,2013-08-28 01:49:00,
2013-08-27 21:51:00,76.8,41.3,29.88,SW,225,0.0,0.0,28,0.00,,---,0.00,VWS V14.00,2013-08-28 01:51:00,
2013-08-27 21:54:00,76.8,41.3,29.88,SW,225,0.0,0.0,28,0.00,,---,0.00,VWS V14.00,2013-08-28 01:54:00,
2013-08-27 21:55:00,76.6,41.1,29.88,SW,225,0.9,0.9,28,0.00,,---,0.00,VWS V14.00,2013-08-28 01:55:00,
2013-08-27 21:56:00,76.6,41.1,29.88,SW,225,0.0,1.1,28,0.00,,---,0.00,VWS V14.00,2013-08-28 01:56:00,
2013-08-27 22:00:00,76.5,41.0,29.88,SW,225,0.0,0.0,28,0.00,,---,0.00,VWS V14.00,2013-08-28 02:00:00,
2013-08-27 22:02:00,76.5,41.0,29.88,SW,225,0.0,0.0,28,0.00,,---,0.00,VWS V14.00,2013-08-28 02:02:00,
2013-08-27 22:05:00,76.5,41.0,29.88,SW,225,0.0,0.0,28,0.00,,---,0.00,VWS V14.00,2013-08-28 02:05:00,
2013-08-27 22:07:00,76.5,41.0,29.88,SW,225,0.0,0.0,28,0.00,,---,0.00,VWS V14.00,2013-08-28 02:07:00,
2013-08-27 22:09:00,76.3,40.8,29.88,SW,225,0.0,0.0,28,0.00,,---,0.00,VWS V14.00,2013-08-28 02:09:00,
2013-08-27 22:10:00,76.3,40.8,29.88,SW,225,0.0,0.0,28,0.00,,---,0.00,VWS V14.00,2013-08-28 02:10:00,
2013-08-27 22:14:00,76.3,40.8,29.88,SW,225,0.0,0.0,28,0.00,,---,0.00,VWS V14.00,2013-08-28 02:14:00,
2013-08-27 22:15:00,76.3,40.8,29.88,SW,225,0.0,0.0,28,0.00,,---,0.00,VWS V14.00,2013-08-28 02:15:00,
2013-08-27 22:18:00,76.1,40.7,29.88,SW,225,0.0,0.0,28,0.00,,---,0.00,VWS V14.00,2013-08-28 02:18:00,
2013-08-27 22:20:00,76.1,40.7,29.88,SW,225,0.0,0.0,28,0.00,,---,0.00,VWS V14.00,2013-08-28 02:20:00,
2013-08-27 22:22:00,76.1,40.7,29.88,SW,225,0.0,0.0,28,0.00,,---,0.00,VWS V14.00,2013-08-28 02:22:00,
2013-08-27 22:23:00,75.9,40.5,29.88,SW,225,0.0,0.0,28,0.00,,---,0.00,VWS V14.00,2013-08-28 02:23:00,
2013-08-27 22:26:00,75.9,40.5,29.88,SW,225,0.0,0.0,28,0.00,,---,0.00,VWS V14.00,2013-08-28 02:26:00,
2013-08-27 22:28:00,75.9,40.5,29.88,SW,225,0.0,0.0,28,0.00,,---,0.00,VWS V14.00,2013-08-28 02:28:00,
2013-08-27 22:30:00,75.9,40.5,29.88,SW,225,0.0,0.0,28,0.00,,---,0.00,VWS V14.00,2013-08-28 02:30:00,
2013-08-27 22:34:00,75.7,40.3,29.88,SW,225,0.0,0.0,28,0.00,,---,0.00,VWS V14.00,2013-08-28 02:34:00,
2013-08-27 22:36:00,75.7,40.3,29.88,SW,225,0.0,0.0,28,0.00,,---,0.00,VWS V14.00,2013-08-28 02:36:00,
2013-08-27 22:37:00,75.7,40.3,29.88,SW,225,0.0,0.0,28,0.00,,---,0.00,VWS V14.00,2013-08-28 02:37:00,
2013-08-27 22:39:00,75.6,40.2,29.88,SW,225,0.0,0.0,28,0.00,,---,0.00,VWS V14.00,2013-08-28 02:39:00,
2013-08-27 22:44:00,75.6,40.2,29.88,SW,225,0.0,0.0,28,0.00,,---,0.00,VWS V14.00,2013-08-28 02:44:00,
2013-08-27 22:47:00,75.6,40.2,29.88,SW,225,0.0,0.0,28,0.00,,---,0.00,VWS V14.00,2013-08-28 02:47:00,
2013-08-27 22:49:00,75.6,40.2,29.88,SW,225,0.0,0.0,28,0.00,,---,0.00,VWS V14.00,2013-08-28 02:49:00,
2013-08-27 22:50:00,75.4,40.0,29.88,SW,225,0.0,0.0,28,0.00,,---,0.00,VWS V14.00,2013-08-28 02:50:00,
2013-08-27 22:52:00,75.4,40.0,29.88,SW,225,0.0,0.0,28,0.00,,---,0.00,VWS V14.00,2013-08-28 02:52:00,
2013-08-27 22:53:00,75.4,40.0,29.88,SW,225,0.0,0.0,28,0.00,,---,0.00,VWS V14.00,2013-08-28 02:53:00,
2013-08-27 22:54:00,75.2,40.8,29.88,SW,225,0.0,0.0,29,0.00,,---,0.00,VWS V14.00,2013-08-28 02:54:00,
2013-08-27 22:57:00,75.2,40.8,29.88,SW,225,0.0,0.0,29,0.00,,---,0.00,VWS V14.00,2013-08-28 02:57:00,
2013-08-27 22:58:00,75.2,40.8,29.88,SW,225,0.0,0.0,29,0.00,,---,0.00,VWS V14.00,2013-08-28 02:58:00,
2013-08-27 23:00:00,75.2,40.8,29.88,SW,225,0.0,0.0,29,0.00,,---,0.00,VWS V14.00,2013-08-28 03:00:00,
2013-08-27 23:03:00,75.2,40.8,29.88,SW,225,0.0,0.0,29,0.00,,---,0.00,VWS V14.00,2013-08-28 03:03:00,
2013-08-27 23:06:00,75.2,40.8,29.88,SW,225,0.0,0.0,29,0.00,,---,0.00,VWS V14.00,2013-08-28 03:06:00,
2013-08-27 23:07:00,75.0,40.6,29.88,SW,225,0.0,0.0,29,0.00,,---,0.00,VWS V14.00,2013-08-28 03:07:00,
2013-08-27 23:08:00,75.0,40.6,29.88,SW,225,0.0,0.0,29,0.00,,---,0.00,VWS V14.00,2013-08-28 03:08:00,
2013-08-27 23:11:00,75.0,40.6,29.88,SW,225,0.0,0.0,29,0.00,,---,0.00,VWS V14.00,2013-08-28 03:11:00,
2013-08-27 23:14:00,75.0,40.6,29.88,SW,225,0.0,0.0,29,0.00,,---,0.00,VWS V14.00,2013-08-28 03:14:00,
2013-08-27 23:18:00,75.0,40.6,29.91,SW,225,0.0,0.0,29,0.00,,---,0.00,VWS V14.00,2013-08-28 03:18:00,
2013-08-27 23:19:00,75.0,41.5,29.91,SW,225,0.0,0.0,30,0.00,,---,0.00,VWS V14.00,2013-08-28 03:19:00,
2013-08-27 23:23:00,75.0,41.5,29.91,SW,225,0.0,0.0,30,0.00,,---,0.00,VWS V14.00,2013-08-28 03:23:00,
2013-08-27 23:24:00,75.0,41.5,29.91,SW,225,0.0,0.0,30,0.00,,---,0.00,VWS V14.00,2013-08-28 03:24:00,
2013-08-27 23:25:00,74.8,41.4,29.91,SW,225,0.0,0.0,30,0.00,,---,0.00,VWS V14.00,2013-08-28 03:25:00,
2013-08-27 23:26:00,74.8,41.4,29.91,SW,225,0.0,0.0,30,0.00,,---,0.00,VWS V14.00,2013-08-28 03:26:00,
2013-08-27 23:27:00,74.8,41.4,29.91,SW,225,0.0,0.0,30,0.00,,---,0.00,VWS V14.00,2013-08-28 03:27:00,
2013-08-27 23:30:00,74.8,41.4,29.91,SW,225,0.0,0.0,30,0.00,,---,0.00,VWS V14.00,2013-08-28 03:30:00,
2013-08-27 23:31:00,74.8,41.4,29.91,SW,225,0.0,0.0,30,0.00,,---,0.00,VWS V14.00,2013-08-28 03:31:00,
2013-08-27 23:35:00,74.7,40.3,29.91,SW,225,0.0,0.0,29,0.00,,---,0.00,VWS V14.00,2013-08-28 03:35:00,
2013-08-27 23:36:00,74.7,40.3,29.91,SW,225,0.0,0.0,29,0.00,,---,0.00,VWS V14.00,2013-08-28 03:36:00,
2013-08-27 23:40:00,74.7,40.3,29.91,SW,225,1.3,2.2,29,0.00,,---,0.00,VWS V14.00,2013-08-28 03:40:00,
2013-08-27 23:42:00,74.7,40.3,29.91,SW,225,0.0,0.0,29,0.00,,---,0.00,VWS V14.00,2013-08-28 03:42:00,
2013-08-27 23:43:00,74.7,40.3,29.91,SW,225,0.0,0.0,29,0.00,,---,0.00,VWS V14.00,2013-08-28 03:43:00,
2013-08-27 23:45:00,74.7,40.3,29.91,SW,225,0.0,0.0,29,0.00,,---,0.00,VWS V14.00,2013-08-28 03:45:00,
2013-08-27 23:47:00,74.7,40.3,29.88,SW,225,0.0,1.1,29,0.00,,---,0.00,VWS V14.00,2013-08-28 03:47:00,
2013-08-27 23:50:00,74.7,40.3,29.88,SW,225,0.0,0.0,29,0.00,,---,0.00,VWS V14.00,2013-08-28 03:50:00,
2013-08-27 23:51:00,74.7,40.3,29.88,SW,225,0.0,0.0,29,0.00,,---,0.00,VWS V14.00,2013-08-28 03:51:00,
2013-08-27 23:53:00,74.5,41.0,29.88,SW,225,0.0,0.0,30,0.00,,---,0.00,VWS V14.00,2013-08-28 03:53:00,
2013-08-27 23:55:00,74.5,41.0,29.88,SW,225,0.0,0.0,30,0.00,,---,0.00,VWS V14.00,2013-08-28 03:55:00,
2013-08-27 23:57:00,74.3,40.9,29.88,SW,225,0.0,0.0,30,0.00,,---,0.00,VWS V14.00,2013-08-28 03:57:00,
2013-08-27 23:58:00,74.3,40.9,29.88,SW,225,0.0,0.0,30,0.00,,---,0.00,VWS V14.00,2013-08-28 03:58:00,
2013-08-27 23:59:00,74.3,40.9,29.88,SW,225,0.0,0.0,30,0.00,,---,0.00,VWS V14.00,2013-08-28 03:59:00,